CCA935 ZSPD-EDDF

Flight info

Callsign CCA935
Flight time N/A
Altitude 34100
Route PIK81D PIKAS G330 PIMOL A593 DPX/K0911S1100 A593 DALIM W157 BEKDO/K0904S1070 W157 VYK G212 SOTMU/K0900S1100 B339 POLHO Y345 UDA R372 AMUTA/K0919F360 R372 OGULI/K0920F380 R372 ADONI B800 KUMOD N869 UNISO L870 PITIN/K0906F400 L870 RANVA/N0489F400 L870 RESMO DCT TODNA DCT DEREX/N0475F280 P739 KOLJA N746 GORPI/N0484F400 Z80 TILAV L87 KETAP DCT PENEK DCT POVEL DCT RIMET/N0482F310 T157 KOKEB/N0439F230 T157 KERAX KERAX4B
Aircraft A359/H-SDE2E3GHIJ1J3J4J5LM1ORWXY/LB1D1

Departure

Time 2026-05-04 19:08
Airport Shanghai Pudong International Airport (ZSPD)

Arrival

Time N/A
Airport Frankfurt Main Airport (EDDF)
Time Latitude Longitude Altitude Speed Heading
2026-05-04 18:35 31.13631 121.81045 29 ft 0 kts 347°
2026-05-04 18:46 31.13627 121.81046 29 ft 2 kts 347°
2026-05-04 18:47 31.13608 121.81051 27 ft 3 kts 347°
2026-05-04 18:47 31.13588 121.81057 28 ft 3 kts 347°
2026-05-04 18:47 31.13570 121.81062 27 ft 3 kts 336°
2026-05-04 18:47 31.13554 121.81073 26 ft 3 kts 306°
2026-05-04 18:48 31.13545 121.81093 29 ft 3 kts 283°
2026-05-04 18:48 31.13542 121.81114 29 ft 2 kts 278°
2026-05-04 18:48 31.13541 121.81122 29 ft 0 kts 278°
2026-05-04 18:51 31.13542 121.81119 29 ft 2 kts 278°
2026-05-04 18:51 31.13546 121.81079 29 ft 8 kts 274°
2026-05-04 18:51 31.13531 121.80998 28 ft 13 kts 252°
2026-05-04 18:51 31.13499 121.80882 29 ft 17 kts 252°
2026-05-04 18:52 31.13462 121.80749 29 ft 18 kts 252°
2026-05-04 18:52 31.13412 121.80622 29 ft 16 kts 224°
2026-05-04 18:52 31.13334 121.80617 29 ft 10 kts 165°
2026-05-04 18:52 31.13264 121.80642 29 ft 11 kts 162°
2026-05-04 18:53 31.13190 121.80670 29 ft 12 kts 162°
2026-05-04 18:53 31.13110 121.80700 29 ft 13 kts 162°
2026-05-04 18:53 31.13040 121.80703 29 ft 8 kts 211°
2026-05-04 18:53 31.13005 121.80641 29 ft 12 kts 252°
2026-05-04 18:54 31.12978 121.80543 29 ft 13 kts 252°
2026-05-04 18:54 31.12950 121.80439 29 ft 13 kts 252°
2026-05-04 18:54 31.12921 121.80336 29 ft 14 kts 252°
2026-05-04 18:54 31.12891 121.80227 29 ft 15 kts 252°
2026-05-04 18:55 31.12903 121.80150 29 ft 8 kts 317°
2026-05-04 18:55 31.12964 121.80071 29 ft 5 kts 270°
2026-05-04 18:55 31.12972 121.80031 29 ft 5 kts 302°
2026-05-04 18:56 31.13000 121.80001 29 ft 6 kts 326°
2026-05-04 18:56 31.13037 121.79984 28 ft 6 kts 340°
2026-05-04 18:56 31.13083 121.79965 28 ft 8 kts 342°
2026-05-04 18:56 31.13149 121.79940 28 ft 12 kts 342°
2026-05-04 18:57 31.13231 121.79910 28 ft 13 kts 342°
2026-05-04 18:57 31.13319 121.79877 28 ft 14 kts 342°
2026-05-04 18:57 31.13379 121.79855 29 ft 14 kts 342°
2026-05-04 18:57 31.13505 121.79807 28 ft 15 kts 341°
2026-05-04 18:58 31.13606 121.79768 28 ft 15 kts 341°
2026-05-04 18:58 31.13709 121.79728 29 ft 16 kts 342°
2026-05-04 18:58 31.13817 121.79689 29 ft 17 kts 342°
2026-05-04 18:58 31.13891 121.79661 29 ft 17 kts 342°
2026-05-04 18:59 31.14005 121.79619 29 ft 17 kts 342°
2026-05-04 18:59 31.14123 121.79574 29 ft 18 kts 342°
2026-05-04 18:59 31.14245 121.79528 29 ft 19 kts 342°
2026-05-04 18:59 31.14371 121.79481 29 ft 19 kts 342°
2026-05-04 19:00 31.14499 121.79433 29 ft 20 kts 342°
2026-05-04 19:00 31.14629 121.79383 29 ft 20 kts 342°
2026-05-04 19:00 31.14749 121.79337 29 ft 18 kts 342°
2026-05-04 19:00 31.14871 121.79290 29 ft 18 kts 342°
2026-05-04 19:01 31.14972 121.79253 29 ft 14 kts 342°
2026-05-04 19:01 31.15066 121.79217 29 ft 15 kts 342°
2026-05-04 19:01 31.15168 121.79178 29 ft 16 kts 342°
2026-05-04 19:01 31.15274 121.79138 29 ft 16 kts 342°
2026-05-04 19:02 31.15385 121.79096 29 ft 17 kts 342°
2026-05-04 19:02 31.15502 121.79053 28 ft 18 kts 342°
2026-05-04 19:02 31.15622 121.79007 28 ft 18 kts 342°
2026-05-04 19:02 31.15745 121.78961 28 ft 19 kts 342°
2026-05-04 19:03 31.15870 121.78914 29 ft 17 kts 342°
2026-05-04 19:03 31.15984 121.78871 29 ft 17 kts 342°
2026-05-04 19:03 31.16045 121.78848 29 ft 7 kts 342°
2026-05-04 19:03 31.16083 121.78833 29 ft 0 kts 342°
2026-05-04 19:04 31.16084 121.78833 29 ft 0 kts 342°
2026-05-04 19:04 31.16091 121.78830 29 ft 5 kts 342°
2026-05-04 19:04 31.16133 121.78811 29 ft 7 kts 332°
2026-05-04 19:05 31.16147 121.78773 29 ft 8 kts 276°
2026-05-04 19:05 31.16134 121.78701 29 ft 10 kts 252°
2026-05-04 19:05 31.16104 121.78634 29 ft 9 kts 218°
2026-05-04 19:05 31.16049 121.78621 28 ft 5 kts 162°
2026-05-04 19:06 31.16020 121.78638 28 ft 0 kts 160°
2026-05-04 19:07 31.15952 121.78665 28 ft 35 kts 161°
2026-05-04 19:07 31.15514 121.78829 28 ft 95 kts 161°
2026-05-04 19:07 31.14710 121.79132 30 ft 146 kts 162°
2026-05-04 19:08 31.13615 121.79551 192 ft 175 kts 161°
2026-05-04 19:08 31.12502 121.80007 879 ft 166 kts 161°
2026-05-04 19:08 31.11406 121.80440 1339 ft 172 kts 164°
2026-05-04 19:08 31.10206 121.80835 1464 ft 191 kts 166°
2026-05-04 19:09 31.08862 121.81250 1652 ft 210 kts 166°
2026-05-04 19:09 31.07361 121.81723 1799 ft 231 kts 166°
2026-05-04 19:09 31.05756 121.82233 2114 ft 244 kts 165°
2026-05-04 19:09 31.04125 121.82781 2610 ft 249 kts 165°
2026-05-04 19:10 31.02424 121.83261 3104 ft 253 kts 174°
2026-05-04 19:10 31.00669 121.83056 3590 ft 256 kts 200°
2026-05-04 19:10 30.99195 121.81904 4086 ft 260 kts 229°
2026-05-04 19:10 30.98321 121.80075 4629 ft 260 kts 250°
2026-05-04 19:11 30.97760 121.78055 5186 ft 262 kts 253°
2026-05-04 19:11 30.97233 121.76042 5721 ft 265 kts 253°
2026-05-04 19:11 30.96681 121.73968 6218 ft 270 kts 254°
2026-05-04 19:11 30.96306 121.71821 6675 ft 272 kts 269°
2026-05-04 19:12 30.96517 121.69635 7203 ft 272 kts 282°
2026-05-04 19:12 30.97342 121.65294 8254 ft 276 kts 283°
2026-05-04 19:12 30.97758 121.63106 8772 ft 278 kts 283°
2026-05-04 19:13 30.98170 121.60908 9322 ft 280 kts 283°
2026-05-04 19:13 30.98585 121.58680 9874 ft 282 kts 283°
2026-05-04 19:13 30.99004 121.56416 10260 ft 290 kts 283°
2026-05-04 19:13 30.99436 121.54075 10496 ft 302 kts 282°
2026-05-04 19:14 30.99886 121.51632 10716 ft 314 kts 282°
2026-05-04 19:14 31.00351 121.49101 10944 ft 326 kts 282°
2026-05-04 19:14 31.00835 121.46471 11163 ft 337 kts 282°
2026-05-04 19:14 31.01338 121.43754 11400 ft 348 kts 282°
2026-05-04 19:15 31.01844 121.40997 11599 ft 357 kts 282°
2026-05-04 19:15 31.02370 121.38130 11865 ft 365 kts 282°
2026-05-04 19:15 31.02903 121.35219 12242 ft 369 kts 282°
2026-05-04 19:15 31.03438 121.32297 12653 ft 371 kts 282°
2026-05-04 19:16 31.03978 121.29343 13079 ft 373 kts 282°
2026-05-04 19:16 31.04521 121.26376 13494 ft 376 kts 282°
2026-05-04 19:16 31.05065 121.23391 13903 ft 377 kts 281°
2026-05-04 19:16 31.05612 121.20393 14303 ft 378 kts 281°
2026-05-04 19:17 31.06247 121.17409 14665 ft 380 kts 289°
2026-05-04 19:17 31.07545 121.14726 15013 ft 384 kts 309°
2026-05-04 19:17 31.09612 121.12736 15378 ft 390 kts 329°
2026-05-04 19:17 31.12188 121.11706 15722 ft 397 kts 349°
2026-05-04 19:18 31.14961 121.11516 16073 ft 402 kts 359°
2026-05-04 19:18 31.17763 121.11607 16431 ft 404 kts 358°
2026-05-04 19:18 31.20578 121.11621 16799 ft 405 kts 356°
2026-05-04 19:18 31.23405 121.11557 17158 ft 407 kts 355°
2026-05-04 19:19 31.26241 121.11450 17499 ft 409 kts 355°
2026-05-04 19:19 31.29092 121.11318 17841 ft 411 kts 354°
2026-05-04 19:19 31.31951 121.11168 18180 ft 413 kts 354°
2026-05-04 19:19 31.34822 121.11041 18484 ft 416 kts 356°
2026-05-04 19:20 31.37693 121.11149 18775 ft 419 kts 360°
2026-05-04 19:20 31.40615 121.11348 19056 ft 421 kts
2026-05-04 19:20 31.43545 121.11454 19346 ft 420 kts 354°
2026-05-04 19:20 31.46396 121.10842 19622 ft 414 kts 338°
2026-05-04 19:21 31.49059 121.09566 19917 ft 414 kts 332°
2026-05-04 19:21 31.51678 121.08165 20193 ft 415 kts 332°
2026-05-04 19:21 31.54314 121.06749 20470 ft 417 kts 332°
2026-05-04 19:21 31.56958 121.05335 20747 ft 419 kts 332°
2026-05-04 19:22 31.59617 121.03915 21019 ft 420 kts 332°
2026-05-04 19:22 31.62287 121.02491 21294 ft 422 kts 332°
2026-05-04 19:22 31.64967 121.01062 21568 ft 424 kts 332°
2026-05-04 19:22 31.67656 120.99628 21840 ft 425 kts 332°
2026-05-04 19:23 31.70353 120.98190 22120 ft 427 kts 332°
2026-05-04 19:23 31.73063 120.96744 22398 ft 428 kts 332°
2026-05-04 19:23 31.75781 120.95293 22675 ft 430 kts 332°
2026-05-04 19:23 31.78508 120.93836 22955 ft 431 kts 332°
2026-05-04 19:24 31.81245 120.92373 23223 ft 433 kts 332°
2026-05-04 19:24 31.83991 120.90904 23475 ft 435 kts 332°
2026-05-04 19:24 31.86752 120.89426 23730 ft 437 kts 332°
2026-05-04 19:24 31.89528 120.87940 23954 ft 438 kts 332°
2026-05-04 19:25 31.92305 120.86451 24187 ft 439 kts 332°
2026-05-04 19:25 31.95092 120.84957 24425 ft 441 kts 332°
2026-05-04 19:25 31.97886 120.83463 24675 ft 442 kts 332°
2026-05-04 19:25 32.00691 120.81954 24872 ft 444 kts 332°
2026-05-04 19:26 32.03499 120.80441 25097 ft 445 kts 332°
2026-05-04 19:26 32.06292 120.78935 25317 ft 446 kts 332°
2026-05-04 19:26 32.09038 120.77236 25528 ft 445 kts 324°
2026-05-04 19:26 32.11522 120.75090 25762 ft 442 kts 315°
2026-05-04 19:27 32.13655 120.72500 25980 ft 440 kts 306°
2026-05-04 19:27 32.15382 120.69543 26211 ft 437 kts 297°
2026-05-04 19:27 32.16667 120.66297 26459 ft 436 kts 288°
2026-05-04 19:27 32.17480 120.62853 26698 ft 435 kts 279°
2026-05-04 19:28 32.17921 120.59319 26937 ft 436 kts 276°
2026-05-04 19:28 32.18251 120.55760 27191 ft 437 kts 275°
2026-05-04 19:28 32.18532 120.52188 27453 ft 438 kts 274°
2026-05-04 19:28 32.18798 120.48607 27690 ft 439 kts 274°
2026-05-04 19:29 32.19067 120.45013 27952 ft 440 kts 274°
2026-05-04 19:29 32.19344 120.41414 28205 ft 441 kts 274°
2026-05-04 19:29 32.19630 120.37796 28396 ft 444 kts 274°
2026-05-04 19:30 32.20222 120.30479 28723 ft 450 kts 275°
2026-05-04 19:30 32.20524 120.26801 28975 ft 450 kts 275°
2026-05-04 19:30 32.20829 120.23117 29220 ft 451 kts 275°
2026-05-04 19:30 32.21133 120.19423 29443 ft 453 kts 274°
2026-05-04 19:31 32.21435 120.15710 29670 ft 454 kts 274°
2026-05-04 19:31 32.21737 120.11996 29885 ft 455 kts 274°
2026-05-04 19:31 32.22038 120.08264 30037 ft 458 kts 275°
2026-05-04 19:31 32.22341 120.04503 30145 ft 461 kts 274°
2026-05-04 19:32 32.22643 120.00731 30354 ft 462 kts 274°
2026-05-04 19:32 32.22946 119.96954 30586 ft 462 kts 274°
2026-05-04 19:32 32.23246 119.93181 30902 ft 459 kts 274°
2026-05-04 19:32 32.23544 119.89439 31252 ft 456 kts 274°
2026-05-04 19:33 32.23948 119.85737 31583 ft 455 kts 279°
2026-05-04 19:33 32.24717 119.82117 31882 ft 455 kts 286°
2026-05-04 19:33 32.25898 119.78633 32018 ft 459 kts 294°
2026-05-04 19:33 32.27522 119.75372 32161 ft 463 kts 302°
2026-05-04 19:34 32.29575 119.72421 32423 ft 466 kts 310°
2026-05-04 19:34 32.31996 119.69860 32684 ft 469 kts 318°
2026-05-04 19:34 32.34593 119.67524 32950 ft 469 kts 319°
2026-05-04 19:34 32.37226 119.65265 33200 ft 468 kts 320°
2026-05-04 19:35 32.39850 119.63056 33428 ft 467 kts 320°
2026-05-04 19:35 32.42531 119.60806 33672 ft 466 kts 320°
2026-05-04 19:35 32.45136 119.58610 33896 ft 466 kts 319°
2026-05-04 19:35 32.47770 119.56381 34096 ft 465 kts 319°
2026-05-04 19:36 32.50390 119.54143 34277 ft 464 kts 319°
2026-05-04 19:36 32.52997 119.51893 34417 ft 464 kts 319°
2026-05-04 19:36 32.55603 119.49633 34561 ft 465 kts 319°
2026-05-04 19:36 32.58217 119.47362 34690 ft 466 kts 319°
2026-05-04 19:37 32.60831 119.45092 34826 ft 466 kts 319°
2026-05-04 19:37 32.63443 119.42826 35010 ft 465 kts 319°
2026-05-04 19:37 32.66047 119.40568 35187 ft 464 kts 319°
2026-05-04 19:37 32.68654 119.38307 35348 ft 463 kts 319°
2026-05-04 19:38 32.71257 119.36048 35491 ft 463 kts 319°
2026-05-04 19:38 32.73852 119.33794 35648 ft 463 kts 319°
2026-05-04 19:38 32.76456 119.31531 35795 ft 462 kts 319°
2026-05-04 19:38 32.79048 119.29276 35940 ft 462 kts 319°
2026-05-04 19:39 32.81644 119.27016 36067 ft 462 kts 319°
2026-05-04 19:39 32.86858 119.22469 36108 ft 468 kts 319°
2026-05-04 19:40 32.92117 119.17877 36105 ft 469 kts 319°
2026-05-04 19:40 32.97382 119.13301 36106 ft 469 kts 319°
2026-05-04 19:41 33.02670 119.08754 36108 ft 469 kts 319°
2026-05-04 19:41 33.07957 119.04206 36102 ft 469 kts 319°
2026-05-04 19:42 33.13242 118.99646 36101 ft 468 kts 319°
2026-05-04 19:42 33.18517 118.95083 36101 ft 468 kts 320°
2026-05-04 19:43 33.23800 118.90498 36096 ft 470 kts 320°
2026-05-04 19:43 33.29070 118.85886 36096 ft 470 kts 320°
2026-05-04 19:44 33.33457 118.82064 36097 ft 470 kts 320°
2026-05-04 19:44 33.38754 118.77476 36094 ft 470 kts 320°
2026-05-04 19:45 33.44906 118.72143 36095 ft 470 kts 320°
2026-05-04 19:45 33.49341 118.68298 36093 ft 470 kts 320°
2026-05-04 19:46 33.54642 118.63703 36090 ft 471 kts 320°
2026-05-04 19:46 33.59949 118.59095 36091 ft 472 kts 320°
2026-05-04 19:47 33.65266 118.54472 36088 ft 472 kts 320°
2026-05-04 19:47 33.70582 118.49843 36088 ft 472 kts 320°
2026-05-04 19:48 33.75891 118.45212 36095 ft 472 kts 320°
2026-05-04 19:48 33.81199 118.40574 36085 ft 472 kts 320°
2026-05-04 19:49 33.86515 118.35923 36091 ft 472 kts 320°
2026-05-04 19:49 33.91818 118.31276 36086 ft 471 kts 320°
2026-05-04 19:50 33.97088 118.26651 36085 ft 471 kts 320°
2026-05-04 19:50 34.02399 118.22020 36079 ft 472 kts 321°
2026-05-04 19:51 34.07715 118.17394 36073 ft 471 kts 321°
2026-05-04 19:51 34.13026 118.12771 36073 ft 470 kts 321°
2026-05-04 19:52 34.18330 118.08149 36081 ft 470 kts 321°
2026-05-04 19:52 34.23637 118.03515 36084 ft 470 kts 321°
2026-05-04 19:53 34.29312 117.99550 36072 ft 475 kts 335°
2026-05-04 19:53 34.35613 117.96996 36082 ft 478 kts 340°
2026-05-04 19:54 34.41949 117.94741 36079 ft 477 kts 341°
2026-05-04 19:54 34.48325 117.92506 36083 ft 477 kts 340°
2026-05-04 19:55 34.54695 117.90246 36084 ft 477 kts 340°
2026-05-04 19:55 34.61063 117.87965 36089 ft 476 kts 340°
2026-05-04 19:56 34.67410 117.85684 36088 ft 476 kts 340°
2026-05-04 19:56 34.73756 117.83400 36087 ft 476 kts 340°
2026-05-04 19:57 34.80104 117.81113 36088 ft 476 kts 340°
2026-05-04 19:57 34.86450 117.78813 36090 ft 475 kts 340°
2026-05-04 19:58 34.92773 117.76497 36090 ft 474 kts 340°
2026-05-04 19:58 34.99093 117.74177 36088 ft 474 kts 340°
2026-05-04 19:59 35.05411 117.71860 36090 ft 474 kts 340°
2026-05-04 19:59 35.11731 117.69550 36089 ft 474 kts 340°
2026-05-04 20:00 35.18046 117.67231 36094 ft 473 kts 340°
2026-05-04 20:00 35.24352 117.64909 36089 ft 473 kts 340°
2026-05-04 20:01 35.30655 117.62587 36084 ft 473 kts 340°
2026-05-04 20:01 35.36923 117.60275 36080 ft 473 kts 340°
2026-05-04 20:02 35.43224 117.57948 36074 ft 473 kts 340°
2026-05-04 20:02 35.49521 117.55619 36074 ft 473 kts 340°
2026-05-04 20:03 35.55813 117.53287 36071 ft 473 kts 340°
2026-05-04 20:03 35.62114 117.50948 36071 ft 472 kts 340°
2026-05-04 20:04 35.68410 117.48607 36071 ft 472 kts 340°
2026-05-04 20:04 35.74699 117.46265 36066 ft 472 kts 341°
2026-05-04 20:05 35.80981 117.43923 36063 ft 471 kts 341°
2026-05-04 20:05 35.87260 117.41576 36063 ft 471 kts 341°
2026-05-04 20:06 35.93538 117.39227 36060 ft 471 kts 341°
2026-05-04 20:06 35.99809 117.36877 36060 ft 471 kts 341°
2026-05-04 20:07 36.06046 117.34553 36060 ft 471 kts 341°
2026-05-04 20:07 36.12323 117.32242 36057 ft 471 kts 341°
2026-05-04 20:08 36.18595 117.29928 36055 ft 470 kts 341°
2026-05-04 20:08 36.24866 117.27604 36055 ft 470 kts 341°
2026-05-04 20:09 36.31136 117.25275 36056 ft 470 kts 341°
2026-05-04 20:09 36.37396 117.22945 36041 ft 469 kts 341°
2026-05-04 20:10 36.43564 117.20342 36029 ft 468 kts 336°
2026-05-04 20:10 36.49583 117.17289 36026 ft 467 kts 336°
2026-05-04 20:11 36.55586 117.14160 36017 ft 467 kts 336°
2026-05-04 20:11 36.61566 117.11031 35997 ft 466 kts 336°
2026-05-04 20:12 36.67506 117.07926 35994 ft 465 kts 336°
2026-05-04 20:12 36.73514 117.04785 35983 ft 465 kts 336°
2026-05-04 20:13 36.79445 117.01680 35984 ft 465 kts 336°
2026-05-04 20:13 36.85413 116.98550 35974 ft 464 kts 336°
2026-05-04 20:14 36.91372 116.95421 35969 ft 464 kts 336°
2026-05-04 20:14 36.97318 116.92292 35970 ft 464 kts 336°
2026-05-04 20:15 37.03274 116.89153 35965 ft 464 kts 336°
2026-05-04 20:15 37.09220 116.86013 35964 ft 463 kts 337°
2026-05-04 20:16 37.15154 116.82875 35961 ft 462 kts 337°
2026-05-04 20:16 37.21088 116.79786 35961 ft 462 kts 340°
2026-05-04 20:17 37.27212 116.77320 35962 ft 462 kts 342°
2026-05-04 20:17 37.33364 116.74985 35954 ft 462 kts 343°
2026-05-04 20:18 37.39477 116.72688 35952 ft 461 kts 343°
2026-05-04 20:18 37.45656 116.70356 35952 ft 461 kts 343°
2026-05-04 20:19 37.51795 116.68029 35946 ft 461 kts 343°
2026-05-04 20:19 37.57894 116.65710 35946 ft 460 kts 343°
2026-05-04 20:20 37.64012 116.63380 35942 ft 459 kts 343°
2026-05-04 20:20 37.70127 116.61047 35934 ft 459 kts 343°
2026-05-04 20:21 37.76241 116.58711 35935 ft 459 kts 343°
2026-05-04 20:21 37.85388 116.55209 35930 ft 457 kts 343°
2026-05-04 20:22 37.91467 116.52877 35931 ft 456 kts 343°
2026-05-04 20:22 37.97405 116.50089 35927 ft 456 kts 333°
2026-05-04 20:23 38.02766 116.45751 35926 ft 457 kts 326°
2026-05-04 20:23 38.07934 116.41047 35921 ft 458 kts 325°
2026-05-04 20:24 38.13081 116.36277 35918 ft 458 kts 325°
2026-05-04 20:24 38.18247 116.31543 35912 ft 457 kts 328°
2026-05-04 20:25 38.23935 116.28023 35988 ft 455 kts 343°
2026-05-04 20:25 38.27007 116.27104 36240 ft 452 kts 351°
2026-05-04 20:25 38.30093 116.26791 36482 ft 451 kts 359°
2026-05-04 20:26 38.33216 116.27089 36688 ft 451 kts
2026-05-04 20:26 38.36329 116.27922 36821 ft 452 kts 11°
2026-05-04 20:26 38.42443 116.29973 36912 ft 457 kts 13°
2026-05-04 20:27 38.48561 116.32148 36912 ft 460 kts 13°
2026-05-04 20:27 38.54722 116.34317 36904 ft 458 kts 12°
2026-05-04 20:28 38.60869 116.36451 36899 ft 458 kts 12°
2026-05-04 20:28 38.67019 116.38583 36905 ft 458 kts 12°
2026-05-04 20:29 38.73159 116.40738 36900 ft 457 kts 12°
2026-05-04 20:29 38.79286 116.42900 36899 ft 457 kts 12°
2026-05-04 20:30 38.84429 116.44716 36894 ft 457 kts 12°
2026-05-04 20:30 38.90554 116.46881 36891 ft 457 kts 12°
2026-05-04 20:31 38.97674 116.49401 36890 ft 457 kts 12°
2026-05-04 20:31 39.02812 116.51223 36898 ft 457 kts 12°
2026-05-04 20:32 39.08944 116.53401 36891 ft 457 kts 12°
2026-05-04 20:32 39.15082 116.55585 36891 ft 458 kts 12°
2026-05-04 20:33 39.21174 116.57777 36897 ft 458 kts 14°
2026-05-04 20:33 39.27202 116.60493 36887 ft 459 kts 17°
2026-05-04 20:34 39.33176 116.63423 36895 ft 459 kts 17°
2026-05-04 20:34 39.39153 116.66290 36897 ft 459 kts 17°
2026-05-04 20:35 39.45160 116.69110 36899 ft 459 kts 16°
2026-05-04 20:35 39.51171 116.71915 36893 ft 460 kts 16°
2026-05-04 20:36 39.57185 116.74728 36907 ft 460 kts 16°
2026-05-04 20:36 39.63201 116.77550 36903 ft 460 kts 16°
2026-05-04 20:37 39.69227 116.80383 36909 ft 461 kts 16°
2026-05-04 20:37 39.75266 116.83192 36912 ft 460 kts 14°
2026-05-04 20:38 39.81500 116.84618 36914 ft 453 kts 359°
2026-05-04 20:38 39.87708 116.83963 36913 ft 451 kts 350°
2026-05-04 20:39 39.93698 116.82794 36916 ft 451 kts 349°
2026-05-04 20:39 39.99847 116.81516 36914 ft 451 kts 349°
2026-05-04 20:40 40.06050 116.80248 36918 ft 451 kts 349°
2026-05-04 20:40 40.12254 116.79001 36928 ft 451 kts 349°
2026-05-04 20:41 40.18464 116.77757 36923 ft 451 kts 349°
2026-05-04 20:41 40.24667 116.76513 36913 ft 451 kts 349°
2026-05-04 20:42 40.30879 116.75259 36917 ft 451 kts 349°
2026-05-04 20:42 40.36930 116.73250 36916 ft 450 kts 342°
2026-05-04 20:43 40.42918 116.70874 36932 ft 450 kts 341°
2026-05-04 20:43 40.48905 116.68433 36933 ft 451 kts 341°
2026-05-04 20:44 40.54861 116.66005 36932 ft 451 kts 341°
2026-05-04 20:44 40.60858 116.63566 36935 ft 451 kts 341°
2026-05-04 20:45 40.66862 116.61124 36943 ft 452 kts 341°
2026-05-04 20:45 40.72875 116.58675 36947 ft 452 kts 341°
2026-05-04 20:46 40.78986 116.56707 36947 ft 455 kts 351°
2026-05-04 20:46 40.85302 116.55924 36956 ft 457 kts 353°
2026-05-04 20:47 40.91640 116.55337 36944 ft 457 kts 353°
2026-05-04 20:47 40.97991 116.54776 36946 ft 457 kts 353°
2026-05-04 20:48 41.04346 116.54197 36945 ft 457 kts 353°
2026-05-04 20:48 41.10688 116.53608 36936 ft 456 kts 353°
2026-05-04 20:49 41.16976 116.53019 36931 ft 455 kts 353°
2026-05-04 20:49 41.23217 116.51838 36936 ft 451 kts 342°
2026-05-04 20:50 41.28985 116.48576 36923 ft 447 kts 329°
2026-05-04 20:50 41.34325 116.44478 36918 ft 446 kts 328°
2026-05-04 20:51 41.39649 116.40216 36910 ft 446 kts 328°
2026-05-04 20:51 41.44975 116.35954 36892 ft 446 kts 328°
2026-05-04 20:52 41.50305 116.31711 36886 ft 447 kts 328°
2026-05-04 20:52 41.55642 116.27466 36882 ft 446 kts 328°
2026-05-04 20:53 41.60978 116.23214 36864 ft 447 kts 327°
2026-05-04 20:53 41.66324 116.18946 36864 ft 448 kts 327°
2026-05-04 20:54 41.71668 116.14670 36858 ft 448 kts 327°
2026-05-04 20:54 41.77019 116.10381 36852 ft 448 kts 327°
2026-05-04 20:55 41.82373 116.06080 36846 ft 449 kts 327°
2026-05-04 20:55 41.87726 116.01772 36841 ft 449 kts 327°
2026-05-04 20:56 41.93082 115.97452 36838 ft 449 kts 327°
2026-05-04 20:56 41.98413 115.93081 36839 ft 448 kts 324°
2026-05-04 20:57 42.03542 115.88323 36834 ft 448 kts 323°
2026-05-04 20:57 42.08591 115.83503 36833 ft 448 kts 323°
2026-05-04 20:58 42.13704 115.78692 36834 ft 448 kts 323°
2026-05-04 20:58 42.18834 115.73914 36821 ft 448 kts 323°
2026-05-04 20:59 42.23965 115.69140 36821 ft 448 kts 323°
2026-05-04 20:59 42.29101 115.64359 36814 ft 448 kts 323°
2026-05-04 21:00 42.34231 115.59565 36813 ft 448 kts 323°
2026-05-04 21:00 42.39353 115.54762 36805 ft 448 kts 323°
2026-05-04 21:01 42.44471 115.49956 36797 ft 448 kts 323°
2026-05-04 21:01 42.49583 115.45149 36791 ft 447 kts 323°
2026-05-04 21:02 42.54689 115.40339 36792 ft 447 kts 323°
2026-05-04 21:02 42.59789 115.35522 36776 ft 446 kts 322°
2026-05-04 21:03 42.64880 115.30706 36776 ft 446 kts 322°
2026-05-04 21:03 42.69939 115.25910 36769 ft 446 kts 322°
2026-05-04 21:04 42.75024 115.21079 36761 ft 445 kts 322°
2026-05-04 21:04 42.80098 115.16249 36756 ft 445 kts 322°
2026-05-04 21:05 42.85176 115.11405 36748 ft 445 kts 322°
2026-05-04 21:05 42.90250 115.06555 36740 ft 445 kts 322°
2026-05-04 21:06 42.95318 115.01701 36742 ft 445 kts 322°
2026-05-04 21:06 43.00386 114.96838 36742 ft 445 kts 322°
2026-05-04 21:07 43.05437 114.91981 36722 ft 444 kts 322°
2026-05-04 21:07 43.10484 114.87117 36716 ft 444 kts 322°
2026-05-04 21:08 43.15552 114.82297 36717 ft 444 kts 322°
2026-05-04 21:08 43.20664 114.77543 36726 ft 444 kts 322°
2026-05-04 21:09 43.25765 114.72791 36697 ft 442 kts 322°
2026-05-04 21:09 43.30841 114.68032 36698 ft 442 kts 322°
2026-05-04 21:10 43.35917 114.63254 36693 ft 442 kts 322°
2026-05-04 21:10 43.40990 114.58468 36693 ft 442 kts 322°
2026-05-04 21:11 43.46021 114.53712 36705 ft 441 kts 322°
2026-05-04 21:11 43.51077 114.48924 36681 ft 441 kts 322°
2026-05-04 21:12 43.56129 114.44129 36678 ft 441 kts 322°
2026-05-04 21:12 43.61182 114.39324 36678 ft 441 kts 322°
2026-05-04 21:13 43.66230 114.34514 36673 ft 441 kts 321°
2026-05-04 21:13 43.71282 114.29689 36692 ft 441 kts 321°
2026-05-04 21:14 43.76329 114.24860 36667 ft 441 kts 321°
2026-05-04 21:14 43.81366 114.20029 36667 ft 440 kts 321°
2026-05-04 21:15 43.86402 114.15188 36664 ft 441 kts 321°
2026-05-04 21:15 43.91454 114.10323 36670 ft 442 kts 321°
2026-05-04 21:16 43.96469 114.05484 36670 ft 442 kts 321°
2026-05-04 21:16 44.01514 114.00606 36672 ft 441 kts 321°
2026-05-04 21:17 44.06544 113.95732 36671 ft 441 kts 321°
2026-05-04 21:17 44.11583 113.90838 36678 ft 441 kts 321°
2026-05-04 21:18 44.16618 113.85937 36676 ft 441 kts 321°
2026-05-04 21:18 44.20801 113.81859 36681 ft 441 kts 321°
2026-05-04 21:19 44.25832 113.76944 36686 ft 441 kts 321°
2026-05-04 21:19 44.30848 113.72033 36686 ft 440 kts 320°
2026-05-04 21:20 44.35851 113.67124 36686 ft 439 kts 320°
2026-05-04 21:20 44.40849 113.62209 36693 ft 439 kts 320°
2026-05-04 21:21 44.45851 113.57281 36687 ft 439 kts 320°
2026-05-04 21:21 44.50843 113.52351 36708 ft 439 kts 320°
2026-05-04 21:22 44.55789 113.47459 36690 ft 437 kts 320°
2026-05-04 21:22 44.60753 113.42535 36691 ft 437 kts 320°
2026-05-04 21:23 44.65719 113.37599 36689 ft 437 kts 320°
2026-05-04 21:23 44.70674 113.32664 36701 ft 437 kts 320°
2026-05-04 21:24 44.75627 113.27696 36697 ft 436 kts 318°
2026-05-04 21:24 44.79939 113.21817 36704 ft 429 kts 306°
2026-05-04 21:25 44.83592 113.15178 36717 ft 429 kts 304°
2026-05-04 21:25 44.87143 113.08409 36718 ft 429 kts 303°
2026-05-04 21:26 44.90677 113.01630 36714 ft 429 kts 303°
2026-05-04 21:26 44.94221 112.94852 36714 ft 429 kts 304°
2026-05-04 21:27 44.97764 112.88081 36739 ft 429 kts 303°
2026-05-04 21:27 45.01303 112.81303 36743 ft 429 kts 303°
2026-05-04 21:28 45.04820 112.74551 36746 ft 429 kts 303°
2026-05-04 21:28 45.08346 112.67764 36756 ft 428 kts 303°
2026-05-04 21:29 45.11867 112.60971 36754 ft 427 kts 303°
2026-05-04 21:29 45.15370 112.54197 36755 ft 426 kts 303°
2026-05-04 21:30 45.18870 112.47411 36751 ft 426 kts 303°
2026-05-04 21:30 45.22367 112.40615 36761 ft 427 kts 303°
2026-05-04 21:31 45.27619 112.30378 36766 ft 427 kts 303°
2026-05-04 21:32 45.31111 112.23553 36767 ft 427 kts 303°
2026-05-04 21:32 45.34597 112.16722 36768 ft 427 kts 303°
2026-05-04 21:33 45.38061 112.09918 36778 ft 428 kts 303°
2026-05-04 21:33 45.41545 112.03059 36780 ft 428 kts 303°
2026-05-04 21:34 45.45023 111.96194 36783 ft 427 kts 302°
2026-05-04 21:34 45.48494 111.89328 36789 ft 426 kts 302°
2026-05-04 21:35 45.51953 111.82467 36797 ft 426 kts 302°
2026-05-04 21:35 45.55409 111.75595 36795 ft 426 kts 302°
2026-05-04 21:36 45.58860 111.68717 36796 ft 426 kts 302°
2026-05-04 21:36 45.62309 111.61829 36796 ft 426 kts 302°
2026-05-04 21:37 45.65754 111.54930 36811 ft 426 kts 302°
2026-05-04 21:37 45.69195 111.48021 36810 ft 426 kts 302°
2026-05-04 21:38 45.72631 111.41107 36816 ft 426 kts 302°
2026-05-04 21:38 45.76066 111.34178 36810 ft 426 kts 302°
2026-05-04 21:39 45.79493 111.27248 36841 ft 426 kts 302°
2026-05-04 21:39 45.82915 111.20311 36827 ft 426 kts 302°
2026-05-04 21:40 45.86310 111.13411 36827 ft 426 kts 302°
2026-05-04 21:40 45.89725 111.06456 36828 ft 426 kts 302°
2026-05-04 21:41 45.93133 110.99495 36841 ft 426 kts 302°
2026-05-04 21:41 45.96538 110.92524 36846 ft 426 kts 302°
2026-05-04 21:42 45.99939 110.85544 36847 ft 426 kts 302°
2026-05-04 21:42 46.03338 110.78549 36841 ft 426 kts 302°
2026-05-04 21:43 46.06730 110.71555 36860 ft 426 kts 302°
2026-05-04 21:43 46.10118 110.64548 36858 ft 426 kts 302°
2026-05-04 21:44 46.13500 110.57540 36868 ft 426 kts 301°
2026-05-04 21:44 46.16871 110.50535 36861 ft 425 kts 301°
2026-05-04 21:45 46.20239 110.43518 36877 ft 424 kts 301°
2026-05-04 21:45 46.23596 110.36507 36882 ft 425 kts 301°
2026-05-04 21:46 46.26948 110.29487 36879 ft 424 kts 301°
2026-05-04 21:46 46.30296 110.22461 36878 ft 424 kts 301°
2026-05-04 21:47 46.33643 110.15417 36896 ft 424 kts 301°
2026-05-04 21:47 46.36979 110.08380 36898 ft 424 kts 301°
2026-05-04 21:48 46.40315 110.01326 36899 ft 424 kts 301°
2026-05-04 21:48 46.43643 109.94270 36903 ft 424 kts 301°
2026-05-04 21:49 46.46969 109.87199 36900 ft 424 kts 301°
2026-05-04 21:49 46.50269 109.80168 36916 ft 424 kts 301°
2026-05-04 21:50 46.53581 109.73091 36919 ft 424 kts 301°
2026-05-04 21:50 46.56894 109.65996 36917 ft 424 kts 301°
2026-05-04 21:51 46.60198 109.58902 36915 ft 424 kts 301°
2026-05-04 21:51 46.63498 109.51798 36925 ft 424 kts 301°
2026-05-04 21:52 46.66792 109.44689 36923 ft 424 kts 301°
2026-05-04 21:52 46.70081 109.37572 36925 ft 423 kts 301°
2026-05-04 21:53 46.73359 109.30463 36919 ft 422 kts 301°
2026-05-04 21:53 46.76630 109.23348 36932 ft 422 kts 301°
2026-05-04 21:54 46.79892 109.16235 36925 ft 422 kts 301°
2026-05-04 21:54 46.83152 109.09109 36945 ft 422 kts 301°
2026-05-04 21:55 46.86401 109.01990 36919 ft 420 kts 301°
2026-05-04 21:55 46.89631 108.94893 36919 ft 419 kts 301°
2026-05-04 21:56 46.92855 108.87791 36918 ft 419 kts 300°
2026-05-04 21:56 46.96072 108.80686 36912 ft 419 kts 300°
2026-05-04 21:57 46.99267 108.73611 36945 ft 418 kts 300°
2026-05-04 21:57 47.00863 108.70072 37174 ft 415 kts 300°
2026-05-04 21:57 47.02453 108.66547 37461 ft 413 kts 301°
2026-05-04 21:57 47.04033 108.63048 37678 ft 411 kts 301°
2026-05-04 21:58 47.05608 108.59558 37849 ft 410 kts 301°
2026-05-04 21:58 47.08769 108.52538 37910 ft 415 kts 301°
2026-05-04 21:59 47.11950 108.45454 37907 ft 415 kts 301°
2026-05-04 21:59 47.15124 108.38373 37906 ft 415 kts 301°
2026-05-04 22:00 47.18285 108.31300 37906 ft 412 kts 301°
2026-05-04 22:00 47.21420 108.24268 37907 ft 410 kts 301°
2026-05-04 22:01 47.24542 108.17244 37906 ft 410 kts 301°
2026-05-04 22:01 47.27661 108.10210 37901 ft 410 kts 301°
2026-05-04 22:02 47.30771 108.03179 37905 ft 409 kts 300°
2026-05-04 22:02 47.33864 107.96169 37903 ft 408 kts 300°
2026-05-04 22:03 47.36951 107.89153 37899 ft 408 kts 300°
2026-05-04 22:03 47.40030 107.82138 37904 ft 407 kts 300°
2026-05-04 22:04 47.43112 107.75118 37898 ft 407 kts 300°
2026-05-04 22:04 47.46172 107.68133 37893 ft 407 kts 300°
2026-05-04 22:05 47.49240 107.61111 37891 ft 406 kts 300°
2026-05-04 22:05 47.52304 107.54078 37902 ft 406 kts 300°
2026-05-04 22:06 47.55363 107.47039 37899 ft 407 kts 300°
2026-05-04 22:06 47.57901 107.41184 37901 ft 407 kts 300°
2026-05-04 22:07 47.61466 107.32941 37902 ft 406 kts 299°
2026-05-04 22:07 47.63995 107.27079 37907 ft 406 kts 299°
2026-05-04 22:08 47.67034 107.20017 37908 ft 406 kts 299°
2026-05-04 22:08 47.70089 107.12904 37914 ft 406 kts 299°
2026-05-04 22:09 47.73079 107.05861 37920 ft 406 kts 299°
2026-05-04 22:09 47.76087 106.98749 37920 ft 407 kts 299°
2026-05-04 22:10 47.79102 106.91615 37920 ft 407 kts 299°
2026-05-04 22:10 47.82117 106.84470 37928 ft 408 kts 299°
2026-05-04 22:11 47.85348 106.77530 37951 ft 411 kts 306°
2026-05-04 22:11 47.89637 106.71788 37921 ft 422 kts 320°
2026-05-04 22:12 47.94867 106.67576 37920 ft 430 kts 326°
2026-05-04 22:12 48.00297 106.63768 37925 ft 432 kts 327°
2026-05-04 22:13 48.05747 106.59993 37944 ft 432 kts 327°
2026-05-04 22:13 48.11184 106.56179 37932 ft 431 kts 327°
2026-05-04 22:14 48.16605 106.52339 37956 ft 431 kts 327°
2026-05-04 22:14 48.21989 106.48510 37958 ft 431 kts 327°
2026-05-04 22:15 48.27411 106.44644 37964 ft 432 kts 326°
2026-05-04 22:15 48.32837 106.40768 37972 ft 432 kts 327°
2026-05-04 22:16 48.38271 106.36878 37984 ft 433 kts 326°
2026-05-04 22:16 48.43727 106.32960 37983 ft 436 kts 326°
2026-05-04 22:17 48.49207 106.29020 37989 ft 436 kts 326°
2026-05-04 22:17 48.54683 106.25074 38001 ft 436 kts 326°
2026-05-04 22:18 48.60161 106.21116 38034 ft 437 kts 327°
2026-05-04 22:18 48.65684 106.17108 38017 ft 443 kts 327°
2026-05-04 22:19 48.71272 106.13047 38019 ft 446 kts 327°
2026-05-04 22:19 48.76866 106.08982 38025 ft 446 kts 327°
2026-05-04 22:20 48.82456 106.04906 38034 ft 445 kts 327°
2026-05-04 22:20 48.88015 106.00837 38040 ft 447 kts 327°
2026-05-04 22:21 48.93635 105.96710 38042 ft 450 kts 328°
2026-05-04 22:21 48.99291 105.92552 38055 ft 452 kts 328°
2026-05-04 22:22 49.04950 105.88384 38060 ft 452 kts 328°
2026-05-04 22:22 49.10603 105.84207 38103 ft 452 kts 328°
2026-05-04 22:23 49.16257 105.80018 38076 ft 451 kts 328°
2026-05-04 22:23 49.21901 105.75826 38082 ft 451 kts 328°
2026-05-04 22:24 49.27547 105.71620 38091 ft 451 kts 328°
2026-05-04 22:24 49.33189 105.67408 38085 ft 451 kts 328°
2026-05-04 22:25 49.38821 105.63190 38097 ft 451 kts 328°
2026-05-04 22:25 49.44467 105.58953 38098 ft 452 kts 328°
2026-05-04 22:26 49.50110 105.54708 38105 ft 452 kts 328°
2026-05-04 22:26 49.55755 105.50449 38112 ft 451 kts 328°
2026-05-04 22:27 49.61395 105.46183 38140 ft 452 kts 328°
2026-05-04 22:27 49.67038 105.41904 38118 ft 451 kts 328°
2026-05-04 22:28 49.72661 105.37631 38115 ft 450 kts 328°
2026-05-04 22:28 49.78284 105.33344 38126 ft 450 kts 328°
2026-05-04 22:29 49.83872 105.29072 38125 ft 450 kts 328°
2026-05-04 22:29 49.89491 105.24766 38141 ft 451 kts 328°
2026-05-04 22:30 49.95132 105.20431 38134 ft 453 kts 328°
2026-05-04 22:30 50.00782 105.16079 38137 ft 453 kts 328°
2026-05-04 22:31 50.06419 105.11726 38141 ft 453 kts 328°
2026-05-04 22:31 50.12064 105.07355 38142 ft 453 kts 328°
2026-05-04 22:32 50.17710 105.02971 38145 ft 455 kts 328°
2026-05-04 22:32 50.23385 104.98552 38141 ft 456 kts 328°
2026-05-04 22:33 50.29025 104.94151 38141 ft 456 kts 328°
2026-05-04 22:33 50.34574 104.89427 38138 ft 451 kts 321°
2026-05-04 22:34 50.39166 104.82909 38152 ft 442 kts 306°
2026-05-04 22:34 50.42686 104.75012 38143 ft 443 kts 301°
2026-05-04 22:35 50.46002 104.66831 38142 ft 444 kts 300°
2026-05-04 22:35 50.49289 104.58619 38149 ft 444 kts 300°
2026-05-04 22:36 50.52590 104.50410 38144 ft 444 kts 300°
2026-05-04 22:36 50.55902 104.42186 38149 ft 446 kts 300°
2026-05-04 22:37 50.59222 104.33924 38151 ft 446 kts 300°
2026-05-04 22:37 50.62534 104.25657 38154 ft 446 kts 300°
2026-05-04 22:38 50.65837 104.17385 38153 ft 446 kts 300°
2026-05-04 22:38 50.69136 104.09095 38151 ft 446 kts 300°
2026-05-04 22:39 50.72432 104.00784 38156 ft 447 kts 300°
2026-05-04 22:39 50.75726 103.92461 38154 ft 447 kts 300°
2026-05-04 22:40 50.78993 103.84178 38155 ft 447 kts 300°
2026-05-04 22:40 50.82293 103.75785 38161 ft 447 kts 300°
2026-05-04 22:41 50.85549 103.67475 38164 ft 447 kts 300°
2026-05-04 22:41 50.88823 103.59098 38162 ft 447 kts 300°
2026-05-04 22:42 50.92087 103.50722 38162 ft 447 kts 300°
2026-05-04 22:42 50.95336 103.42316 38169 ft 447 kts 300°
2026-05-04 22:43 50.98584 103.33904 38171 ft 447 kts 300°
2026-05-04 22:43 51.01823 103.25482 38173 ft 447 kts 300°
2026-05-04 22:44 51.05062 103.17033 38180 ft 447 kts 300°
2026-05-04 22:44 51.08292 103.08586 38202 ft 448 kts 300°
2026-05-04 22:45 51.11532 103.00087 38191 ft 451 kts 300°
2026-05-04 22:45 51.16404 102.87253 38192 ft 451 kts 300°
2026-05-04 22:46 51.19641 102.78694 38199 ft 450 kts 300°
2026-05-04 22:46 51.22861 102.70148 38208 ft 450 kts 300°
2026-05-04 22:47 51.26059 102.61631 38215 ft 450 kts 300°
2026-05-04 22:47 51.29269 102.53055 38215 ft 450 kts 300°
2026-05-04 22:48 51.32475 102.44460 38205 ft 450 kts 300°
2026-05-04 22:48 51.35673 102.35856 38219 ft 450 kts 300°
2026-05-04 22:49 51.38869 102.27232 38216 ft 450 kts 300°
2026-05-04 22:49 51.42058 102.18596 38222 ft 450 kts 300°
2026-05-04 22:50 51.45236 102.09962 38213 ft 449 kts 300°
2026-05-04 22:50 51.48409 102.01313 38223 ft 449 kts 300°
2026-05-04 22:51 51.51566 101.92678 38222 ft 449 kts 300°
2026-05-04 22:51 51.54716 101.84029 38221 ft 449 kts 300°
2026-05-04 22:52 51.57861 101.75367 38219 ft 449 kts 300°
2026-05-04 22:52 51.61101 101.66870 38228 ft 449 kts 305°
2026-05-04 22:53 51.65078 101.59077 38221 ft 450 kts 309°
2026-05-04 22:53 51.69177 101.51472 38222 ft 450 kts 309°
2026-05-04 22:54 51.73309 101.43860 38241 ft 450 kts 309°
2026-05-04 22:54 51.77428 101.36231 38228 ft 452 kts 309°
2026-05-04 22:55 51.80851 101.29856 38226 ft 452 kts 309°
2026-05-04 22:55 51.84959 101.22177 38233 ft 451 kts 309°
2026-05-04 22:56 51.89063 101.14483 38242 ft 451 kts 309°
2026-05-04 22:56 51.93156 101.06783 38237 ft 451 kts 309°
2026-05-04 22:57 51.97245 100.99071 38256 ft 451 kts 309°
2026-05-04 22:57 52.01329 100.91346 38254 ft 451 kts 309°
2026-05-04 22:58 52.05421 100.83602 38256 ft 452 kts 309°
2026-05-04 22:58 52.09489 100.75880 38266 ft 452 kts 309°
2026-05-04 22:59 52.13574 100.68102 38264 ft 452 kts 309°
2026-05-04 22:59 52.17650 100.60316 38265 ft 452 kts 309°
2026-05-04 23:00 52.21724 100.52512 38269 ft 452 kts 309°
2026-05-04 23:00 52.25788 100.44702 38271 ft 451 kts 309°
2026-05-04 23:01 52.29845 100.36880 38268 ft 451 kts 309°
2026-05-04 23:01 52.33891 100.29055 38269 ft 451 kts 309°
2026-05-04 23:02 52.37950 100.21181 38273 ft 453 kts 308°
2026-05-04 23:02 52.41981 100.13337 38272 ft 453 kts 308°
2026-05-04 23:03 52.46034 100.05425 38275 ft 453 kts 308°
2026-05-04 23:03 52.50082 99.97500 38270 ft 453 kts 308°
2026-05-04 23:04 52.54134 99.89538 38283 ft 455 kts 308°
2026-05-04 23:04 52.58192 99.81542 38283 ft 455 kts 308°
2026-05-04 23:05 52.62238 99.73543 38296 ft 455 kts 308°
2026-05-04 23:05 52.66288 99.65512 38288 ft 456 kts 308°
2026-05-04 23:06 52.70340 99.57451 38296 ft 456 kts 308°
2026-05-04 23:06 52.74381 99.49387 38294 ft 456 kts 308°
2026-05-04 23:07 52.78418 99.41304 38312 ft 456 kts 308°
2026-05-04 23:07 52.82455 99.33195 38306 ft 456 kts 308°
2026-05-04 23:08 52.86482 99.25079 38318 ft 456 kts 308°
2026-05-04 23:08 52.90508 99.16937 38324 ft 457 kts 308°
2026-05-04 23:09 52.94533 99.08772 38321 ft 459 kts 308°
2026-05-04 23:09 52.98579 99.00541 38322 ft 461 kts 308°
2026-05-04 23:10 53.02596 98.92339 38330 ft 461 kts 308°
2026-05-04 23:10 53.06638 98.84061 38329 ft 461 kts 308°
2026-05-04 23:11 53.10672 98.75770 38333 ft 461 kts 308°
2026-05-04 23:11 53.14703 98.67459 38320 ft 461 kts 308°
2026-05-04 23:12 53.18733 98.59120 38336 ft 462 kts 308°
2026-05-04 23:12 53.22747 98.50790 38337 ft 463 kts 309°
2026-05-04 23:13 53.26808 98.42331 38335 ft 463 kts 308°
2026-05-04 23:13 53.30807 98.33975 38327 ft 463 kts 308°
2026-05-04 23:14 53.34823 98.25554 38330 ft 464 kts 308°
2026-05-04 23:14 53.38833 98.17119 38340 ft 462 kts 309°
2026-05-04 23:15 53.42828 98.08687 38337 ft 461 kts 308°
2026-05-04 23:15 53.46810 98.00254 38334 ft 461 kts 308°
2026-05-04 23:16 53.50787 97.91801 38349 ft 461 kts 308°
2026-05-04 23:16 53.54759 97.83333 38347 ft 461 kts 308°
2026-05-04 23:17 53.58720 97.74860 38341 ft 461 kts 308°
2026-05-04 23:17 53.62668 97.66383 38336 ft 459 kts 308°
2026-05-04 23:18 53.66601 97.57909 38346 ft 459 kts 308°
2026-05-04 23:18 53.70533 97.49413 38351 ft 459 kts 308°
2026-05-04 23:19 53.74461 97.40895 38352 ft 459 kts 308°
2026-05-04 23:19 53.78380 97.32365 38352 ft 459 kts 308°
2026-05-04 23:20 53.82290 97.23828 38355 ft 458 kts 308°
2026-05-04 23:20 53.86162 97.15345 38357 ft 458 kts 308°
2026-05-04 23:21 53.90078 97.06732 38364 ft 458 kts 308°
2026-05-04 23:21 53.93939 96.98215 38366 ft 458 kts 308°
2026-05-04 23:22 53.97822 96.89620 38371 ft 458 kts 308°
2026-05-04 23:22 54.01694 96.81019 38359 ft 458 kts 308°
2026-05-04 23:23 54.05562 96.72399 38374 ft 458 kts 308°
2026-05-04 23:23 54.09432 96.63745 38370 ft 460 kts 308°
2026-05-04 23:24 54.13313 96.55033 38379 ft 462 kts 308°
2026-05-04 23:24 54.17193 96.46293 38378 ft 462 kts 308°
2026-05-04 23:25 54.21066 96.37540 38371 ft 462 kts 308°
2026-05-04 23:25 54.24933 96.28757 38370 ft 463 kts 307°
2026-05-04 23:26 54.28294 96.19357 38370 ft 464 kts 300°
2026-05-04 23:26 54.31413 96.09669 38368 ft 464 kts 300°
2026-05-04 23:27 54.34487 95.99922 38372 ft 465 kts 300°
2026-05-04 23:27 54.37553 95.90175 38374 ft 465 kts 300°
2026-05-04 23:28 54.40626 95.80397 38370 ft 465 kts 300°
2026-05-04 23:28 54.43685 95.70632 38366 ft 464 kts 300°
2026-05-04 23:29 54.46736 95.60859 38365 ft 464 kts 300°
2026-05-04 23:29 54.49762 95.51124 38370 ft 464 kts 300°
2026-05-04 23:30 54.52801 95.41314 38371 ft 464 kts 300°
2026-05-04 23:30 54.55825 95.31511 38363 ft 464 kts 300°
2026-05-04 23:31 54.58838 95.21693 38367 ft 463 kts 300°
2026-05-04 23:31 54.61841 95.11870 38374 ft 463 kts 300°
2026-05-04 23:32 54.64840 95.02023 38370 ft 463 kts 300°
2026-05-04 23:32 54.67831 94.92166 38362 ft 464 kts 300°
2026-05-04 23:33 54.70820 94.82272 38362 ft 464 kts 300°
2026-05-04 23:33 54.73802 94.72359 38365 ft 464 kts 300°
2026-05-04 23:34 54.76759 94.62491 38358 ft 464 kts 299°
2026-05-04 23:34 54.79723 94.52554 38355 ft 465 kts 299°
2026-05-04 23:35 54.82683 94.42593 38354 ft 464 kts 299°
2026-05-04 23:35 54.85622 94.32655 38336 ft 464 kts 299°
2026-05-04 23:36 54.88561 94.22679 38351 ft 464 kts 299°
2026-05-04 23:36 54.91488 94.12701 38342 ft 463 kts 299°
2026-05-04 23:37 54.94403 94.02722 38365 ft 463 kts 299°
2026-05-04 23:37 54.97315 93.92710 38348 ft 464 kts 299°
2026-05-04 23:38 55.00221 93.82678 38333 ft 464 kts 299°
2026-05-04 23:38 55.03113 93.72649 38332 ft 462 kts 299°
2026-05-04 23:39 55.05991 93.62623 38321 ft 462 kts 299°
2026-05-04 23:39 55.08860 93.52589 38321 ft 462 kts 299°
2026-05-04 23:40 55.11725 93.42545 38312 ft 462 kts 299°
2026-05-04 23:40 55.14097 93.34195 38311 ft 462 kts 299°
2026-05-04 23:41 55.16947 93.24123 38301 ft 460 kts 299°
2026-05-04 23:41 55.19767 93.14120 38304 ft 457 kts 299°
2026-05-04 23:42 55.22557 93.04138 38302 ft 456 kts 298°
2026-05-04 23:42 55.25337 92.94141 38296 ft 456 kts 298°
2026-05-04 23:43 55.28114 92.84123 38289 ft 456 kts 298°
2026-05-04 23:43 55.31327 92.72477 38277 ft 456 kts 298°
2026-05-04 23:44 55.33633 92.64081 38297 ft 453 kts 298°
2026-05-04 23:44 55.36363 92.54105 38285 ft 453 kts 298°
2026-05-04 23:45 55.39091 92.44116 38267 ft 453 kts 299°
2026-05-04 23:45 55.41903 92.34198 38262 ft 453 kts 300°
2026-05-04 23:46 55.44725 92.24362 38282 ft 453 kts 299°
2026-05-04 23:46 55.47549 92.14431 38270 ft 453 kts 299°
2026-05-04 23:47 55.50357 92.04467 38273 ft 454 kts 299°
2026-05-04 23:47 55.53155 91.94481 38288 ft 455 kts 299°
2026-05-04 23:48 55.55953 91.84454 38286 ft 455 kts 299°
2026-05-04 23:48 55.58743 91.74412 38282 ft 455 kts 299°
2026-05-04 23:49 55.61524 91.64356 38263 ft 455 kts 299°
2026-05-04 23:49 55.64302 91.54274 38291 ft 456 kts 298°
2026-05-04 23:50 55.67075 91.44162 38288 ft 456 kts 298°
2026-05-04 23:50 55.69840 91.34036 38292 ft 456 kts 298°
2026-05-04 23:51 55.72596 91.23900 38287 ft 456 kts 298°
2026-05-04 23:51 55.75345 91.13743 38288 ft 456 kts 298°
2026-05-04 23:52 55.78083 91.03577 38292 ft 456 kts 298°
2026-05-04 23:52 55.80810 90.93407 38287 ft 456 kts 298°
2026-05-04 23:53 55.83526 90.83234 38294 ft 456 kts 298°
2026-05-04 23:53 55.86238 90.73033 38289 ft 456 kts 298°
2026-05-04 23:54 55.88922 90.62889 38287 ft 456 kts 298°
2026-05-04 23:54 55.91613 90.52672 38292 ft 455 kts 297°
2026-05-04 23:55 55.94291 90.42457 38298 ft 454 kts 297°
2026-05-04 23:56 55.98281 90.27159 38298 ft 453 kts 297°
2026-05-04 23:56 56.00934 90.16927 38297 ft 453 kts 297°
2026-05-04 23:57 56.03572 90.06706 38298 ft 453 kts 297°
2026-05-04 23:57 56.06209 89.96443 38288 ft 453 kts 297°
2026-05-04 23:58 56.08831 89.86189 38297 ft 453 kts 297°
2026-05-04 23:58 56.11448 89.75909 38295 ft 453 kts 297°
2026-05-04 23:59 56.14055 89.65620 38295 ft 453 kts 296°
2026-05-04 23:59 56.16656 89.55309 38295 ft 453 kts 296°
2026-05-05 00:00 56.19243 89.45001 38296 ft 453 kts 296°
2026-05-05 00:00 56.21824 89.34673 38295 ft 453 kts 296°
2026-05-05 00:01 56.24398 89.24321 38289 ft 453 kts 296°
2026-05-05 00:01 56.26948 89.14020 38286 ft 453 kts 296°
2026-05-05 00:02 56.29502 89.03653 38287 ft 453 kts 296°
2026-05-05 00:02 56.32059 88.93278 38281 ft 453 kts 297°
2026-05-05 00:03 56.35258 88.83551 38261 ft 450 kts 304°
2026-05-05 00:03 56.38747 88.74148 38283 ft 451 kts 305°
2026-05-05 00:04 56.42273 88.64787 38285 ft 451 kts 305°
2026-05-05 00:04 56.45792 88.55403 38278 ft 451 kts 305°
2026-05-05 00:05 56.49293 88.45996 38276 ft 451 kts 305°
2026-05-05 00:05 56.52783 88.36569 38270 ft 451 kts 305°
2026-05-05 00:06 56.56269 88.27115 38270 ft 451 kts 305°
2026-05-05 00:06 56.59724 88.17708 38269 ft 450 kts 304°
2026-05-05 00:07 56.63190 88.08238 38265 ft 450 kts 304°
2026-05-05 00:07 56.66646 87.98757 38261 ft 450 kts 304°
2026-05-05 00:08 56.70101 87.89244 38256 ft 450 kts 304°
2026-05-05 00:08 56.73542 87.79726 38247 ft 450 kts 304°
2026-05-05 00:09 56.76982 87.70176 38249 ft 450 kts 304°
2026-05-05 00:09 56.80414 87.60612 38244 ft 451 kts 304°
2026-05-05 00:10 56.83838 87.51032 38245 ft 451 kts 304°
2026-05-05 00:10 56.87259 87.41423 38235 ft 451 kts 304°
2026-05-05 00:11 56.90669 87.31806 38236 ft 451 kts 304°
2026-05-05 00:11 56.94076 87.22159 38232 ft 451 kts 303°
2026-05-05 00:12 56.97473 87.12500 38228 ft 451 kts 303°
2026-05-05 00:12 57.00866 87.02822 38217 ft 451 kts 303°
2026-05-05 00:13 57.04260 86.93126 38220 ft 452 kts 303°
2026-05-05 00:13 57.07645 86.83402 38232 ft 452 kts 303°
2026-05-05 00:14 57.11023 86.73664 38216 ft 452 kts 303°
2026-05-05 00:14 57.14394 86.63905 38202 ft 452 kts 303°
2026-05-05 00:15 57.17758 86.54130 38205 ft 452 kts 303°
2026-05-05 00:15 57.21092 86.44403 38206 ft 451 kts 303°
2026-05-05 00:16 57.24460 86.34538 38192 ft 452 kts 302°
2026-05-05 00:16 57.27780 86.24773 38191 ft 452 kts 302°
2026-05-05 00:17 57.31115 86.14922 38181 ft 452 kts 302°
2026-05-05 00:17 57.34439 86.05064 38178 ft 452 kts 302°
2026-05-05 00:18 57.37763 85.95164 38182 ft 452 kts 302°
2026-05-05 00:18 57.41076 85.85256 38173 ft 452 kts 302°
2026-05-05 00:19 57.44380 85.75333 38173 ft 452 kts 302°
2026-05-05 00:19 57.47674 85.65399 38161 ft 452 kts 302°
2026-05-05 00:20 57.50960 85.55447 38160 ft 452 kts 302°
2026-05-05 00:20 57.54241 85.45471 38164 ft 452 kts 301°
2026-05-05 00:21 57.57514 85.35478 38162 ft 452 kts 301°
2026-05-05 00:21 57.60780 85.25462 38150 ft 452 kts 301°
2026-05-05 00:22 57.64039 85.15426 38133 ft 452 kts 301°
2026-05-05 00:22 57.67268 85.05440 38145 ft 452 kts 301°
2026-05-05 00:23 57.70510 84.95370 38147 ft 452 kts 301°
2026-05-05 00:23 57.73742 84.85288 38133 ft 452 kts 301°
2026-05-05 00:24 57.76964 84.75196 38135 ft 452 kts 301°
2026-05-05 00:24 57.80182 84.65072 38130 ft 452 kts 300°
2026-05-05 00:25 57.83389 84.54938 38131 ft 452 kts 300°
2026-05-05 00:25 57.86595 84.44766 38136 ft 452 kts 300°
2026-05-05 00:26 57.89786 84.34597 38129 ft 452 kts 300°
2026-05-05 00:26 57.92973 84.24399 38123 ft 452 kts 300°
2026-05-05 00:27 57.96149 84.14190 38125 ft 452 kts 300°
2026-05-05 00:27 57.98785 84.05681 38125 ft 452 kts 300°
2026-05-05 00:28 58.01944 83.95445 38115 ft 452 kts 300°
2026-05-05 00:28 58.05096 83.85187 38108 ft 452 kts 299°
2026-05-05 00:29 58.08246 83.74893 38115 ft 453 kts 299°
2026-05-05 00:29 58.11389 83.64574 38106 ft 453 kts 299°
2026-05-05 00:30 58.14527 83.54224 38109 ft 453 kts 299°
2026-05-05 00:30 58.17652 83.43873 38109 ft 453 kts 298°
2026-05-05 00:31 58.20773 83.33491 38104 ft 453 kts 298°
2026-05-05 00:31 58.23882 83.23099 38104 ft 453 kts 298°
2026-05-05 00:32 58.26986 83.12680 38104 ft 453 kts 298°
2026-05-05 00:32 58.30081 83.02243 38096 ft 453 kts 298°
2026-05-05 00:33 58.32779 82.91438 38095 ft 453 kts 288°
2026-05-05 00:33 58.34413 82.79904 38093 ft 453 kts 284°
2026-05-05 00:34 58.35841 82.68222 38091 ft 453 kts 283°
2026-05-05 00:34 58.37219 82.56591 38093 ft 453 kts 283°
2026-05-05 00:35 58.38611 82.44874 38079 ft 453 kts 283°
2026-05-05 00:35 58.40002 82.33157 38082 ft 453 kts 283°
2026-05-05 00:36 58.41387 82.21417 38077 ft 453 kts 282°
2026-05-05 00:36 58.42760 82.09686 38079 ft 453 kts 282°
2026-05-05 00:37 58.44122 81.97933 38076 ft 453 kts 282°
2026-05-05 00:37 58.45472 81.86183 38066 ft 453 kts 282°
2026-05-05 00:38 58.46813 81.74416 38069 ft 453 kts 282°
2026-05-05 00:38 58.48140 81.62657 38068 ft 453 kts 282°
2026-05-05 00:39 58.49451 81.50944 38066 ft 454 kts 282°
2026-05-05 00:39 58.50760 81.39142 38064 ft 454 kts 282°
2026-05-05 00:40 58.52059 81.27323 38060 ft 454 kts 281°
2026-05-05 00:40 58.53347 81.15495 38055 ft 454 kts 281°
2026-05-05 00:41 58.54622 81.03679 38055 ft 453 kts 281°
2026-05-05 00:41 58.55887 80.91848 38055 ft 453 kts 281°
2026-05-05 00:42 58.57140 80.80018 38057 ft 453 kts 281°
2026-05-05 00:42 58.58383 80.68173 38049 ft 453 kts 281°
2026-05-05 00:43 58.59615 80.56319 38031 ft 453 kts 281°
2026-05-05 00:43 58.60836 80.44452 38039 ft 454 kts 281°
2026-05-05 00:44 58.62049 80.32560 38033 ft 454 kts 281°
2026-05-05 00:44 58.63251 80.20655 38033 ft 454 kts 280°
2026-05-05 00:45 58.64432 80.08829 38024 ft 454 kts 280°
2026-05-05 00:45 58.65619 79.96843 38029 ft 454 kts 280°
2026-05-05 00:46 58.66789 79.84903 38017 ft 455 kts 280°
2026-05-05 00:46 58.67950 79.72930 38017 ft 456 kts 280°
2026-05-05 00:47 58.69452 79.61164 38006 ft 456 kts 284°
2026-05-05 00:47 58.71154 79.49401 38009 ft 456 kts 285°
2026-05-05 00:48 58.72876 79.37649 38010 ft 456 kts 285°
2026-05-05 00:48 58.74587 79.25873 38000 ft 456 kts 285°
2026-05-05 00:49 58.76282 79.14086 38003 ft 457 kts 284°
2026-05-05 00:49 58.77966 79.02267 37992 ft 457 kts 284°
2026-05-05 00:50 58.79640 78.90434 37986 ft 457 kts 284°
2026-05-05 00:50 58.81305 78.78579 37979 ft 458 kts 284°
2026-05-05 00:51 58.82956 78.66727 37976 ft 458 kts 284°
2026-05-05 00:51 58.84600 78.54844 37970 ft 457 kts 284°
2026-05-05 00:52 58.86231 78.42958 37965 ft 458 kts 284°
2026-05-05 00:52 58.87853 78.31056 37964 ft 458 kts 284°
2026-05-05 00:53 58.89465 78.19140 37955 ft 458 kts 284°
2026-05-05 00:53 58.91056 78.07278 37956 ft 458 kts 284°
2026-05-05 00:54 58.92644 77.95342 37950 ft 458 kts 284°
2026-05-05 00:54 58.94221 77.83396 37938 ft 458 kts 284°
2026-05-05 00:55 58.95787 77.71441 37934 ft 457 kts 283°
2026-05-05 00:55 58.97341 77.59492 37935 ft 457 kts 283°
2026-05-05 00:56 58.98883 77.47529 37934 ft 457 kts 283°
2026-05-05 00:56 59.00412 77.35567 37924 ft 457 kts 283°
2026-05-05 00:57 59.01933 77.23580 37924 ft 457 kts 283°
2026-05-05 00:57 59.03441 77.11599 37912 ft 457 kts 283°
2026-05-05 00:58 59.04935 76.99623 37918 ft 456 kts 283°
2026-05-05 00:58 59.06418 76.87644 37916 ft 456 kts 283°
2026-05-05 00:59 59.07888 76.75666 37915 ft 456 kts 283°
2026-05-05 00:59 59.09351 76.63683 37915 ft 456 kts 282°
2026-05-05 01:00 59.10796 76.51679 37914 ft 456 kts 282°
2026-05-05 01:00 59.12243 76.39671 37912 ft 455 kts 282°
2026-05-05 01:01 59.13674 76.27664 37909 ft 455 kts 282°
2026-05-05 01:01 59.15085 76.15713 37927 ft 456 kts 282°
2026-05-05 01:02 59.16499 76.03658 37904 ft 458 kts 282°
2026-05-05 01:02 59.17908 75.91541 37903 ft 458 kts 282°
2026-05-05 01:03 59.19309 75.79418 37899 ft 458 kts 282°
2026-05-05 01:03 59.20688 75.67269 37896 ft 458 kts 282°
2026-05-05 01:04 59.22054 75.55124 37896 ft 458 kts 282°
2026-05-05 01:04 59.24086 75.36879 37893 ft 458 kts 282°
2026-05-05 01:05 59.25430 75.24683 37891 ft 458 kts 281°
2026-05-05 01:05 59.26759 75.12512 37888 ft 458 kts 281°
2026-05-05 01:06 59.28078 75.00308 37886 ft 458 kts 281°
2026-05-05 01:06 59.29384 74.88122 37890 ft 458 kts 281°
2026-05-05 01:07 59.30680 74.75914 37882 ft 459 kts 281°
2026-05-05 01:07 59.31967 74.63663 37882 ft 460 kts 281°
2026-05-05 01:08 59.33367 74.51435 37885 ft 460 kts 287°
2026-05-05 01:08 59.35726 74.39880 37883 ft 461 kts 292°
2026-05-05 01:09 59.38367 74.28410 37877 ft 461 kts 293°
2026-05-05 01:09 59.41038 74.16981 37879 ft 460 kts 293°
2026-05-05 01:10 59.43685 74.05545 37879 ft 460 kts 293°
2026-05-05 01:10 59.46316 73.94069 37879 ft 460 kts 293°
2026-05-05 01:11 59.48931 73.82578 37878 ft 460 kts 293°
2026-05-05 01:11 59.51537 73.71068 37875 ft 460 kts 293°
2026-05-05 01:12 59.54132 73.59543 37878 ft 460 kts 292°
2026-05-05 01:12 59.56720 73.47993 37872 ft 460 kts 292°
2026-05-05 01:13 59.59290 73.36457 37874 ft 459 kts 292°
2026-05-05 01:13 59.61418 73.26858 37874 ft 459 kts 292°
2026-05-05 01:14 59.63970 73.15286 37874 ft 459 kts 292°
2026-05-05 01:14 59.66510 73.03703 37889 ft 459 kts 292°
2026-05-05 01:15 59.69038 72.92116 37872 ft 459 kts 292°
2026-05-05 01:15 59.71559 72.80490 37871 ft 459 kts 292°
2026-05-05 01:16 59.74068 72.68862 37875 ft 459 kts 291°
2026-05-05 01:16 59.76568 72.57207 37877 ft 459 kts 291°
2026-05-05 01:17 59.79056 72.45540 37871 ft 459 kts 291°
2026-05-05 01:17 59.81531 72.33869 37875 ft 459 kts 291°
2026-05-05 01:18 59.83998 72.22172 37893 ft 459 kts 291°
2026-05-05 01:18 59.86438 72.10534 37876 ft 459 kts 291°
2026-05-05 01:19 59.88887 71.98794 37879 ft 459 kts 291°
2026-05-05 01:19 59.91339 71.86962 37880 ft 459 kts 291°
2026-05-05 01:20 59.93763 71.75207 37873 ft 458 kts 291°
2026-05-05 01:20 59.96158 71.63517 37886 ft 458 kts 291°
2026-05-05 01:21 59.98559 71.51731 37887 ft 458 kts 291°
2026-05-05 01:21 60.00949 71.39932 37891 ft 458 kts 290°
2026-05-05 01:22 60.03326 71.28127 37894 ft 458 kts 290°
2026-05-05 01:22 60.05694 71.16300 37893 ft 458 kts 290°
2026-05-05 01:23 60.08049 71.04464 37894 ft 457 kts 290°
2026-05-05 01:23 60.10390 70.92632 37896 ft 457 kts 290°
2026-05-05 01:24 60.12722 70.80776 37896 ft 457 kts 290°
2026-05-05 01:24 60.15042 70.68906 37896 ft 457 kts 290°
2026-05-05 01:25 60.17352 70.57019 37895 ft 457 kts 290°
2026-05-05 01:25 60.19652 70.45115 37909 ft 457 kts 290°
2026-05-05 01:26 60.21938 70.33203 37892 ft 457 kts 290°
2026-05-05 01:26 60.24217 70.21264 37881 ft 457 kts 289°
2026-05-05 01:27 60.26481 70.09330 37891 ft 456 kts 289°
2026-05-05 01:27 60.28736 69.97384 37888 ft 456 kts 289°
2026-05-05 01:28 60.30969 69.85417 37888 ft 456 kts 289°
2026-05-05 01:28 60.33177 69.73512 37888 ft 456 kts 289°
2026-05-05 01:29 60.35395 69.61497 37890 ft 456 kts 289°
2026-05-05 01:29 60.37624 69.49415 37879 ft 456 kts 289°
2026-05-05 01:30 60.39812 69.37458 37883 ft 457 kts 289°
2026-05-05 01:30 60.42006 69.25395 37891 ft 457 kts 289°
2026-05-05 01:31 60.44190 69.13313 37887 ft 457 kts 289°
2026-05-05 01:31 60.46365 69.01207 37887 ft 457 kts 288°
2026-05-05 01:32 60.48529 68.89083 37887 ft 457 kts 288°
2026-05-05 01:32 60.50679 68.76968 37882 ft 457 kts 288°
2026-05-05 01:33 60.52827 68.64813 37888 ft 457 kts 288°
2026-05-05 01:33 60.54955 68.52662 37887 ft 457 kts 288°
2026-05-05 01:34 60.57076 68.40472 37886 ft 457 kts 288°
2026-05-05 01:34 60.59185 68.28282 37894 ft 457 kts 288°
2026-05-05 01:35 60.61283 68.16076 37890 ft 457 kts 288°
2026-05-05 01:35 60.63371 68.03848 37890 ft 457 kts 288°
2026-05-05 01:36 60.65445 67.91623 37897 ft 457 kts 288°
2026-05-05 01:36 60.67510 67.79367 37895 ft 457 kts 288°
2026-05-05 01:37 60.69566 67.67079 37912 ft 458 kts 287°
2026-05-05 01:37 60.71615 67.54758 37901 ft 458 kts 287°
2026-05-05 01:38 60.73646 67.42449 37907 ft 457 kts 287°
2026-05-05 01:38 60.75640 67.30193 37919 ft 457 kts 287°
2026-05-05 01:39 60.77636 67.17834 37919 ft 457 kts 287°
2026-05-05 01:39 60.79621 67.05478 37912 ft 457 kts 287°
2026-05-05 01:40 60.81598 66.93101 37924 ft 457 kts 287°
2026-05-05 01:40 60.83565 66.80698 37926 ft 458 kts 287°
2026-05-05 01:41 60.85527 66.68238 37929 ft 459 kts 287°
2026-05-05 01:41 60.87477 66.55762 37935 ft 459 kts 286°
2026-05-05 01:42 60.89416 66.43273 37933 ft 459 kts 286°
2026-05-05 01:42 60.91343 66.30768 37929 ft 459 kts 286°
2026-05-05 01:43 60.93257 66.18254 37936 ft 459 kts 286°
2026-05-05 01:43 60.95152 66.05784 37936 ft 459 kts 286°
2026-05-05 01:44 60.97046 65.93244 37941 ft 459 kts 286°
2026-05-05 01:44 60.98928 65.80708 37940 ft 459 kts 286°
2026-05-05 01:45 61.00796 65.68137 37941 ft 459 kts 286°
2026-05-05 01:45 61.02654 65.55544 37940 ft 459 kts 286°
2026-05-05 01:46 61.04501 65.42944 37951 ft 459 kts 285°
2026-05-05 01:46 61.06337 65.30331 37953 ft 459 kts 285°
2026-05-05 01:47 61.08161 65.17702 37951 ft 459 kts 285°
2026-05-05 01:47 61.09971 65.05072 37961 ft 459 kts 285°
2026-05-05 01:48 61.11773 64.92405 37972 ft 459 kts 285°
2026-05-05 01:48 61.13557 64.79758 37960 ft 458 kts 285°
2026-05-05 01:49 61.15329 64.67109 37971 ft 458 kts 285°
2026-05-05 01:49 61.17091 64.54425 37970 ft 458 kts 285°
2026-05-05 01:50 61.18835 64.41817 37974 ft 458 kts 285°
2026-05-05 01:50 61.20579 64.29123 37976 ft 458 kts 285°
2026-05-05 01:51 61.22308 64.16417 37976 ft 458 kts 285°
2026-05-05 01:51 61.24026 64.03702 37981 ft 458 kts 285°
2026-05-05 01:52 61.25735 63.90955 37992 ft 458 kts 284°
2026-05-05 01:52 61.27433 63.78186 37991 ft 458 kts 284°
2026-05-05 01:53 61.29034 63.65365 37996 ft 458 kts 280°
2026-05-05 01:53 61.30203 63.52340 38000 ft 458 kts 279°
2026-05-05 01:54 61.31283 63.39288 38003 ft 458 kts 279°
2026-05-05 01:54 61.32340 63.26222 38007 ft 458 kts 279°
2026-05-05 01:55 61.33390 63.13154 38012 ft 458 kts 279°
2026-05-05 01:55 61.34435 63.00049 38014 ft 458 kts 279°
2026-05-05 01:56 61.35465 62.86977 38014 ft 457 kts 279°
2026-05-05 01:56 61.36482 62.73904 38014 ft 456 kts 279°
2026-05-05 01:57 61.37488 62.60840 38017 ft 456 kts 279°
2026-05-05 01:57 61.38497 62.47765 38017 ft 456 kts 279°
2026-05-05 01:58 61.39496 62.34698 38019 ft 456 kts 278°
2026-05-05 01:58 61.40475 62.21684 38026 ft 457 kts 278°
2026-05-05 01:59 61.41449 62.08549 38024 ft 457 kts 278°
2026-05-05 01:59 61.42408 61.95422 38031 ft 457 kts 278°
2026-05-05 02:00 61.43356 61.82282 38050 ft 457 kts 278°
2026-05-05 02:00 61.44291 61.69131 38032 ft 458 kts 278°
2026-05-05 02:01 61.45058 61.58201 38033 ft 458 kts 278°
2026-05-05 02:01 61.45972 61.45012 38032 ft 458 kts 278°
2026-05-05 02:02 61.46873 61.31809 38039 ft 459 kts 278°
2026-05-05 02:02 61.47764 61.18563 38035 ft 460 kts 277°
2026-05-05 02:03 61.48653 61.05300 38033 ft 460 kts 277°
2026-05-05 02:03 61.49528 60.92036 38037 ft 460 kts 277°
2026-05-05 02:04 61.50388 60.78775 38040 ft 460 kts 277°
2026-05-05 02:04 61.51237 60.65499 38045 ft 460 kts 277°
2026-05-05 02:05 61.52072 60.52236 38017 ft 459 kts 277°
2026-05-05 02:05 61.52895 60.38953 38035 ft 460 kts 277°
2026-05-05 02:06 61.53701 60.25727 38040 ft 460 kts 277°
2026-05-05 02:06 61.54500 60.12408 38038 ft 460 kts 277°
2026-05-05 02:07 61.55285 59.99089 38034 ft 460 kts 277°
2026-05-05 02:07 61.56070 59.85760 38033 ft 460 kts 277°
2026-05-05 02:08 61.56834 59.72415 38032 ft 460 kts 277°
2026-05-05 02:08 61.57583 59.59088 38033 ft 460 kts 277°
2026-05-05 02:09 61.58323 59.45734 38030 ft 459 kts 277°
2026-05-05 02:09 61.59047 59.32426 38031 ft 458 kts 277°
2026-05-05 02:10 61.59757 59.19141 38030 ft 458 kts 276°
2026-05-05 02:10 61.60455 59.05845 38027 ft 458 kts 276°
2026-05-05 02:11 61.61139 58.92550 38027 ft 458 kts 276°
2026-05-05 02:11 61.61811 58.79245 38029 ft 458 kts 276°
2026-05-05 02:12 61.62790 58.59349 38030 ft 458 kts 276°
2026-05-05 02:13 61.63430 58.46024 38027 ft 458 kts 276°
2026-05-05 02:13 61.64126 58.32695 38030 ft 458 kts 277°
2026-05-05 02:14 61.64859 58.19385 38031 ft 458 kts 277°
2026-05-05 02:14 61.65572 58.06096 38031 ft 458 kts 276°
2026-05-05 02:15 61.66263 57.92772 38031 ft 458 kts 276°
2026-05-05 02:15 61.66937 57.79436 38032 ft 459 kts 276°
2026-05-05 02:16 61.67600 57.66066 38027 ft 459 kts 276°
2026-05-05 02:16 61.68249 57.52699 38027 ft 459 kts 276°
2026-05-05 02:17 61.68887 57.39310 38034 ft 459 kts 276°
2026-05-05 02:17 61.69511 57.25923 38035 ft 458 kts 276°
2026-05-05 02:18 61.70115 57.12677 38028 ft 456 kts 276°
2026-05-05 02:18 61.70708 56.99389 38027 ft 455 kts 276°
2026-05-05 02:19 61.71288 56.86103 38022 ft 455 kts 276°
2026-05-05 02:19 61.71855 56.72831 38025 ft 454 kts 276°
2026-05-05 02:20 61.72409 56.59547 38022 ft 455 kts 276°
2026-05-05 02:20 61.72949 56.46268 38026 ft 455 kts 276°
2026-05-05 02:21 61.73478 56.32966 38025 ft 455 kts 275°
2026-05-05 02:21 61.73993 56.19672 38022 ft 455 kts 275°
2026-05-05 02:22 61.74494 56.06406 38000 ft 453 kts 275°
2026-05-05 02:22 61.74981 55.93179 38023 ft 452 kts 275°
2026-05-05 02:23 61.75452 55.80045 38020 ft 451 kts 275°
2026-05-05 02:23 61.75912 55.66833 38021 ft 451 kts 275°
2026-05-05 02:24 61.76360 55.53619 38026 ft 451 kts 275°
2026-05-05 02:24 61.76795 55.40391 38017 ft 452 kts 275°
2026-05-05 02:25 61.77218 55.27153 38013 ft 452 kts 275°
2026-05-05 02:25 61.77628 55.13901 37985 ft 452 kts 275°
2026-05-05 02:26 61.78027 55.00645 38012 ft 452 kts 274°
2026-05-05 02:26 61.78411 54.87420 38003 ft 451 kts 274°
2026-05-05 02:27 61.78782 54.74189 38008 ft 451 kts 274°
2026-05-05 02:27 61.79161 54.60978 38002 ft 450 kts 274°
2026-05-05 02:28 61.79544 54.47763 38008 ft 450 kts 274°
2026-05-05 02:28 61.79913 54.34544 37998 ft 450 kts 274°
2026-05-05 02:29 61.80265 54.21401 37980 ft 450 kts 274°
2026-05-05 02:29 61.80605 54.08190 37995 ft 450 kts 274°
2026-05-05 02:30 61.80932 53.94965 37988 ft 449 kts 274°
2026-05-05 02:30 61.81245 53.81793 37989 ft 448 kts 274°
2026-05-05 02:31 61.81546 53.68631 37978 ft 447 kts 273°
2026-05-05 02:31 61.81833 53.55490 37991 ft 447 kts 273°
2026-05-05 02:32 61.82108 53.42337 37981 ft 447 kts 273°
2026-05-05 02:32 61.82380 53.29189 37960 ft 447 kts 273°
2026-05-05 02:33 61.82640 53.16121 37983 ft 447 kts 273°
2026-05-05 02:33 61.82888 53.02980 37964 ft 447 kts 273°
2026-05-05 02:34 61.83124 52.89834 37956 ft 447 kts 273°
2026-05-05 02:34 61.83349 52.76688 37955 ft 447 kts 272°
2026-05-05 02:35 61.83560 52.63551 37956 ft 447 kts 272°
2026-05-05 02:35 61.83758 52.50410 37950 ft 446 kts 272°
2026-05-05 02:36 61.83944 52.37261 37920 ft 446 kts 272°
2026-05-05 02:36 61.84110 52.24123 37929 ft 447 kts 271°
2026-05-05 02:37 61.84160 52.10955 37919 ft 447 kts 271°
2026-05-05 02:37 61.84171 51.97789 37944 ft 447 kts 270°
2026-05-05 02:38 61.84186 51.84602 37907 ft 447 kts 271°
2026-05-05 02:38 61.84199 51.71440 37912 ft 447 kts 270°
2026-05-05 02:39 61.84207 51.58350 37911 ft 447 kts 270°
2026-05-05 02:39 61.84199 51.45180 37879 ft 447 kts 270°
2026-05-05 02:40 61.84170 51.31988 37886 ft 448 kts 270°
2026-05-05 02:40 61.84130 51.18790 37881 ft 448 kts 270°
2026-05-05 02:41 61.84080 51.05575 37891 ft 449 kts 270°
2026-05-05 02:41 61.84019 50.92377 37886 ft 448 kts 270°
2026-05-05 02:42 61.83944 50.79172 37877 ft 449 kts 269°
2026-05-05 02:42 61.83856 50.65954 37886 ft 449 kts 269°
2026-05-05 02:43 61.83756 50.52743 37904 ft 449 kts 269°
2026-05-05 02:43 61.83644 50.39552 37878 ft 448 kts 269°
2026-05-05 02:44 61.83519 50.26377 37866 ft 448 kts 269°
2026-05-05 02:44 61.83382 50.13277 37866 ft 448 kts 269°
2026-05-05 02:45 61.83232 50.00100 37849 ft 448 kts 269°
2026-05-05 02:45 61.83068 49.86848 37857 ft 448 kts 269°
2026-05-05 02:46 61.82894 49.73759 37857 ft 448 kts 268°
2026-05-05 02:46 61.82802 49.60563 37830 ft 448 kts 270°
2026-05-05 02:47 61.82779 49.47360 37835 ft 449 kts 270°
2026-05-05 02:47 61.82736 49.34168 37845 ft 448 kts 269°
2026-05-05 02:48 61.82593 49.20999 37827 ft 447 kts 268°
2026-05-05 02:48 61.82397 49.07875 37825 ft 446 kts 268°
2026-05-05 02:49 61.82199 48.94733 37823 ft 446 kts 268°
2026-05-05 02:49 61.81999 48.81612 37817 ft 446 kts 268°
2026-05-05 02:50 61.81790 48.68484 37800 ft 447 kts 268°
2026-05-05 02:50 61.81568 48.55321 37794 ft 447 kts 268°
2026-05-05 02:51 61.81335 48.42257 37803 ft 447 kts 268°
2026-05-05 02:51 61.81087 48.29097 37806 ft 448 kts 267°
2026-05-05 02:52 61.80871 48.18082 37789 ft 448 kts 267°
2026-05-05 02:52 61.80601 48.05001 37786 ft 448 kts 267°
2026-05-05 02:53 61.80317 47.91841 37785 ft 448 kts 267°
2026-05-05 02:53 61.80021 47.78678 37772 ft 448 kts 266°
2026-05-05 02:54 61.79713 47.65544 37777 ft 447 kts 266°
2026-05-05 02:54 61.79393 47.52424 37778 ft 447 kts 266°
2026-05-05 02:55 61.79060 47.39327 37771 ft 447 kts 266°
2026-05-05 02:55 61.78734 47.26220 37759 ft 447 kts 266°
2026-05-05 02:56 61.78401 47.13110 37756 ft 447 kts 266°
2026-05-05 02:56 61.78023 47.00018 37748 ft 447 kts 265°
2026-05-05 02:57 61.77559 46.86941 37729 ft 447 kts 265°
2026-05-05 02:57 61.77078 46.73826 37742 ft 448 kts 265°
2026-05-05 02:58 61.76596 46.60708 37741 ft 448 kts 265°
2026-05-05 02:58 61.76108 46.47592 37731 ft 448 kts 265°
2026-05-05 02:59 61.75607 46.34473 37725 ft 448 kts 265°
2026-05-05 02:59 61.75093 46.21355 37724 ft 448 kts 265°
2026-05-05 03:00 61.74570 46.08325 37726 ft 448 kts 264°
2026-05-05 03:00 61.74028 45.95134 37722 ft 448 kts 264°
2026-05-05 03:01 61.73482 45.82152 37725 ft 447 kts 264°
2026-05-05 03:01 61.72919 45.69075 37720 ft 447 kts 264°
2026-05-05 03:02 61.72343 45.56008 37716 ft 447 kts 264°
2026-05-05 03:02 61.71755 45.42942 37700 ft 447 kts 263°
2026-05-05 03:03 61.71155 45.29898 37701 ft 447 kts 263°
2026-05-05 03:03 61.70544 45.16862 37710 ft 447 kts 263°
2026-05-05 03:04 61.69922 45.03820 37696 ft 447 kts 263°
2026-05-05 03:04 61.69320 44.90804 37709 ft 447 kts 263°
2026-05-05 03:05 61.68711 44.77791 37703 ft 446 kts 263°
2026-05-05 03:05 61.68088 44.64776 37697 ft 446 kts 263°
2026-05-05 03:06 61.67451 44.51786 37687 ft 446 kts 263°
2026-05-05 03:06 61.66801 44.38801 37688 ft 446 kts 263°
2026-05-05 03:07 61.66140 44.25828 37685 ft 446 kts 263°
2026-05-05 03:07 61.65466 44.12865 37665 ft 446 kts 263°
2026-05-05 03:08 61.64780 43.99894 37670 ft 446 kts 263°
2026-05-05 03:08 61.64083 43.86951 37669 ft 446 kts 262°
2026-05-05 03:09 61.63376 43.74067 37690 ft 446 kts 262°
2026-05-05 03:09 61.62650 43.61053 37658 ft 445 kts 262°
2026-05-05 03:10 61.61921 43.48224 37666 ft 444 kts 262°
2026-05-05 03:10 61.61177 43.35345 37664 ft 444 kts 262°
2026-05-05 03:11 61.60420 43.22458 37652 ft 444 kts 262°
2026-05-05 03:11 61.59652 43.09595 37656 ft 444 kts 262°
2026-05-05 03:12 61.58874 42.96758 37655 ft 444 kts 262°
2026-05-05 03:12 61.58082 42.83913 37651 ft 443 kts 261°
2026-05-05 03:13 61.57279 42.71081 37652 ft 443 kts 261°
2026-05-05 03:13 61.56463 42.58246 37663 ft 443 kts 261°
2026-05-05 03:14 61.55634 42.45405 37653 ft 444 kts 261°
2026-05-05 03:14 61.54793 42.32566 37647 ft 444 kts 261°
2026-05-05 03:15 61.53952 42.19729 37646 ft 444 kts 261°
2026-05-05 03:15 61.53117 42.06894 37648 ft 444 kts 261°
2026-05-05 03:16 61.52275 41.94165 37642 ft 444 kts 261°
2026-05-05 03:16 61.51410 41.81336 37642 ft 444 kts 261°
2026-05-05 03:17 61.50533 41.68524 37652 ft 444 kts 260°
2026-05-05 03:17 61.49644 41.55731 37649 ft 444 kts 260°
2026-05-05 03:18 61.48743 41.42929 37638 ft 445 kts 260°
2026-05-05 03:18 61.47827 41.30097 37648 ft 446 kts 260°
2026-05-05 03:19 61.46428 41.10834 37656 ft 446 kts 260°
2026-05-05 03:19 61.45480 40.98003 37668 ft 446 kts 259°
2026-05-05 03:20 61.44521 40.85189 37650 ft 446 kts 259°
2026-05-05 03:20 61.43550 40.72382 37660 ft 446 kts 259°
2026-05-05 03:21 61.42569 40.59599 37642 ft 446 kts 259°
2026-05-05 03:21 61.41571 40.46784 37659 ft 447 kts 259°
2026-05-05 03:22 61.40562 40.33982 37655 ft 448 kts 259°
2026-05-05 03:22 61.39538 40.21146 37664 ft 448 kts 259°
2026-05-05 03:23 61.38502 40.08315 37663 ft 448 kts 259°
2026-05-05 03:23 61.37454 39.95496 37662 ft 448 kts 259°
2026-05-05 03:24 61.36394 39.82687 37671 ft 448 kts 259°
2026-05-05 03:24 61.35321 39.69882 37677 ft 448 kts 259°
2026-05-05 03:25 61.34238 39.57099 37674 ft 448 kts 259°
2026-05-05 03:25 61.33142 39.44321 37686 ft 448 kts 259°
2026-05-05 03:26 61.32034 39.31557 37700 ft 448 kts 259°
2026-05-05 03:26 61.30916 39.18818 37688 ft 447 kts 258°
2026-05-05 03:27 61.29794 39.06172 37691 ft 447 kts 258°
2026-05-05 03:27 61.28657 38.93455 37689 ft 447 kts 258°
2026-05-05 03:28 61.27522 38.80739 37691 ft 447 kts 258°
2026-05-05 03:28 61.26375 38.68044 37693 ft 447 kts 258°
2026-05-05 03:29 61.25216 38.55357 37702 ft 447 kts 258°
2026-05-05 03:29 61.24044 38.42674 37707 ft 447 kts 258°
2026-05-05 03:30 61.22708 38.30068 37714 ft 447 kts 255°
2026-05-05 03:30 61.21139 38.17607 37720 ft 446 kts 255°
2026-05-05 03:31 61.19568 38.05173 37719 ft 445 kts 255°
2026-05-05 03:31 61.18027 37.92732 37719 ft 445 kts 255°
2026-05-05 03:32 61.16496 37.80323 37731 ft 445 kts 255°
2026-05-05 03:32 61.14952 37.67901 37730 ft 445 kts 255°
2026-05-05 03:33 61.13396 37.55498 37732 ft 445 kts 255°
2026-05-05 03:33 61.11828 37.43109 37744 ft 445 kts 255°
2026-05-05 03:34 61.10248 37.30729 37744 ft 445 kts 255°
2026-05-05 03:34 61.08669 37.18461 37729 ft 445 kts 255°
2026-05-05 03:35 61.07056 37.06025 37779 ft 445 kts 255°
2026-05-05 03:35 61.05455 36.93779 37750 ft 444 kts 255°
2026-05-05 03:36 61.03823 36.81398 37756 ft 444 kts 255°
2026-05-05 03:36 61.02201 36.69193 37756 ft 444 kts 254°
2026-05-05 03:37 61.00558 36.56924 37758 ft 444 kts 254°
2026-05-05 03:37 60.99173 36.46646 37766 ft 444 kts 254°
2026-05-05 03:38 60.97508 36.34395 37759 ft 444 kts 254°
2026-05-05 03:38 60.95581 36.22339 37764 ft 443 kts 250°
2026-05-05 03:39 60.93491 36.10432 37766 ft 443 kts 250°
2026-05-05 03:39 60.91416 35.98492 37765 ft 443 kts 251°
2026-05-05 03:40 60.89388 35.86646 37774 ft 443 kts 251°
2026-05-05 03:40 60.87346 35.74711 37774 ft 443 kts 251°
2026-05-05 03:41 60.85294 35.62790 37770 ft 443 kts 251°
2026-05-05 03:41 60.83233 35.50903 37769 ft 442 kts 250°
2026-05-05 03:42 60.81164 35.39027 37771 ft 442 kts 250°
2026-05-05 03:42 60.79076 35.27172 37780 ft 442 kts 250°
2026-05-05 03:43 60.76977 35.15333 37773 ft 442 kts 250°
2026-05-05 03:43 60.74869 35.03512 37773 ft 443 kts 250°
2026-05-05 03:44 60.72753 34.91706 37781 ft 443 kts 250°
2026-05-05 03:44 60.70622 34.79896 37783 ft 443 kts 250°
2026-05-05 03:45 60.68496 34.68180 37804 ft 444 kts 250°
2026-05-05 03:45 60.66322 34.56276 37784 ft 445 kts 250°
2026-05-05 03:46 60.64166 34.44547 37781 ft 445 kts 249°
2026-05-05 03:46 60.61983 34.32737 37789 ft 445 kts 249°
2026-05-05 03:47 60.59791 34.20951 37786 ft 445 kts 249°
2026-05-05 03:47 60.57588 34.09182 37793 ft 445 kts 249°
2026-05-05 03:48 60.55372 33.97411 37804 ft 446 kts 249°
2026-05-05 03:48 60.53140 33.85632 37803 ft 447 kts 249°
2026-05-05 03:49 60.50897 33.73862 37801 ft 447 kts 249°
2026-05-05 03:49 60.48647 33.62121 37803 ft 447 kts 249°
2026-05-05 03:50 60.46385 33.50393 37823 ft 446 kts 249°
2026-05-05 03:50 60.44127 33.38755 37804 ft 446 kts 249°
2026-05-05 03:51 60.41848 33.27075 37803 ft 446 kts 249°
2026-05-05 03:51 60.39558 33.15409 37815 ft 446 kts 249°
2026-05-05 03:52 60.37257 33.03752 37808 ft 446 kts 248°
2026-05-05 03:52 60.34944 32.92106 37821 ft 446 kts 248°
2026-05-05 03:53 60.32624 32.80492 37819 ft 446 kts 248°
2026-05-05 03:53 60.30294 32.68895 37819 ft 446 kts 248°
2026-05-05 03:54 60.27952 32.57306 37829 ft 446 kts 248°
2026-05-05 03:54 60.25601 32.45738 37854 ft 446 kts 248°
2026-05-05 03:55 60.23240 32.34188 37826 ft 446 kts 248°
2026-05-05 03:55 60.20871 32.22654 37826 ft 446 kts 248°
2026-05-05 03:56 60.18504 32.11148 37831 ft 445 kts 248°
2026-05-05 03:56 60.16126 31.99658 37831 ft 445 kts 248°
2026-05-05 03:57 60.13742 31.88195 37829 ft 445 kts 248°
2026-05-05 03:57 60.11363 31.76824 37834 ft 445 kts 248°
2026-05-05 03:58 60.08970 31.65403 37834 ft 444 kts 248°
2026-05-05 03:58 60.06562 31.54001 37837 ft 444 kts 248°
2026-05-05 03:59 60.04229 31.42560 37839 ft 444 kts 251°
2026-05-05 03:59 60.02265 31.30843 37839 ft 444 kts 252°
2026-05-05 04:00 60.00366 31.19130 37844 ft 442 kts 252°
2026-05-05 04:00 59.98475 31.07476 37848 ft 440 kts 252°
2026-05-05 04:01 59.96570 30.95859 37847 ft 440 kts 252°
2026-05-05 04:01 59.94649 30.84254 37852 ft 441 kts 252°
2026-05-05 04:02 59.92717 30.72659 37852 ft 441 kts 252°
2026-05-05 04:02 59.90773 30.61069 37856 ft 441 kts 251°
2026-05-05 04:03 59.88841 30.49570 37850 ft 441 kts 251°
2026-05-05 04:03 59.86882 30.37989 37845 ft 442 kts 251°
2026-05-05 04:04 59.84911 30.26417 37850 ft 442 kts 251°
2026-05-05 04:04 59.82932 30.14867 37851 ft 441 kts 251°
2026-05-05 04:05 59.80948 30.03330 37848 ft 441 kts 251°
2026-05-05 04:05 59.78948 29.91789 37835 ft 441 kts 251°
2026-05-05 04:06 59.76939 29.80288 37823 ft 441 kts 251°
2026-05-05 04:06 59.74922 29.68799 37841 ft 441 kts 251°
2026-05-05 04:07 59.72895 29.57317 37838 ft 441 kts 251°
2026-05-05 04:07 59.70829 29.45856 37836 ft 442 kts 250°
2026-05-05 04:08 59.68621 29.34507 37869 ft 442 kts 249°
2026-05-05 04:08 59.66391 29.23224 37846 ft 438 kts 249°
2026-05-05 04:09 59.64184 29.12007 37844 ft 438 kts 249°
2026-05-05 04:09 59.61981 29.00782 37828 ft 438 kts 249°
2026-05-05 04:10 59.59926 28.89482 37824 ft 438 kts 251°
2026-05-05 04:10 59.57941 28.78083 37841 ft 440 kts 251°
2026-05-05 04:11 59.55927 28.66696 37844 ft 440 kts 251°
2026-05-05 04:11 59.53894 28.55399 37843 ft 440 kts 251°
2026-05-05 04:12 59.51823 28.43982 37846 ft 440 kts 251°
2026-05-05 04:12 59.49793 28.32693 37846 ft 439 kts 251°
2026-05-05 04:13 59.47751 28.21381 37843 ft 438 kts 251°
2026-05-05 04:13 59.45699 28.10101 37834 ft 439 kts 251°
2026-05-05 04:14 59.43589 27.98854 37838 ft 439 kts 250°
2026-05-05 04:14 59.41403 27.87641 37839 ft 440 kts 250°
2026-05-05 04:15 59.39210 27.76435 37843 ft 439 kts 250°
2026-05-05 04:15 59.37022 27.65251 37843 ft 439 kts 250°
2026-05-05 04:16 59.34827 27.54064 37843 ft 440 kts 250°
2026-05-05 04:16 59.32631 27.42875 37877 ft 440 kts 250°
2026-05-05 04:17 59.30461 27.31742 37839 ft 436 kts 250°
2026-05-05 04:17 59.28290 27.20658 37847 ft 436 kts 250°
2026-05-05 04:18 59.26111 27.09604 37846 ft 436 kts 249°
2026-05-05 04:18 59.23921 26.98568 37845 ft 436 kts 249°
2026-05-05 04:19 59.21719 26.87536 37848 ft 436 kts 249°
2026-05-05 04:19 59.19511 26.76536 37850 ft 436 kts 249°
2026-05-05 04:20 59.17308 26.65617 37849 ft 436 kts 249°
2026-05-05 04:20 59.15075 26.54608 37856 ft 437 kts 249°
2026-05-05 04:21 59.12828 26.43591 37861 ft 438 kts 249°
2026-05-05 04:21 59.10572 26.32594 37855 ft 437 kts 249°
2026-05-05 04:22 59.08311 26.21629 37854 ft 437 kts 249°
2026-05-05 04:22 59.06037 26.10665 37854 ft 437 kts 249°
2026-05-05 04:23 59.03757 25.99726 37858 ft 437 kts 248°
2026-05-05 04:23 59.01466 25.88795 37858 ft 437 kts 248°
2026-05-05 04:24 58.99165 25.77873 37858 ft 437 kts 248°
2026-05-05 04:25 58.95715 25.61606 37860 ft 437 kts 248°
2026-05-05 04:25 58.93390 25.50721 37860 ft 437 kts 248°
2026-05-05 04:26 58.91453 25.41690 37872 ft 437 kts 248°
2026-05-05 04:26 58.89113 25.30837 37863 ft 437 kts 248°
2026-05-05 04:27 58.86368 25.18173 37828 ft 437 kts 248°
2026-05-05 04:27 58.84407 25.09175 37864 ft 438 kts 248°
2026-05-05 04:28 58.82032 24.98326 37866 ft 438 kts 248°
2026-05-05 04:28 58.79648 24.87495 37869 ft 438 kts 248°
2026-05-05 04:29 58.77256 24.76686 37869 ft 438 kts 248°
2026-05-05 04:29 58.74853 24.65881 37890 ft 439 kts 248°
2026-05-05 04:30 58.72443 24.55100 37878 ft 438 kts 247°
2026-05-05 04:30 58.70029 24.44357 37861 ft 438 kts 247°
2026-05-05 04:31 58.67599 24.33595 37876 ft 440 kts 247°
2026-05-05 04:31 58.65153 24.22815 37875 ft 440 kts 247°
2026-05-05 04:32 58.62697 24.12052 37879 ft 440 kts 247°
2026-05-05 04:32 58.60230 24.01292 37877 ft 440 kts 247°
2026-05-05 04:33 58.57754 23.90546 37872 ft 440 kts 247°
2026-05-05 04:33 58.55272 23.79832 37875 ft 440 kts 247°
2026-05-05 04:34 58.52782 23.69136 37881 ft 440 kts 247°
2026-05-05 04:34 58.50282 23.58447 37869 ft 440 kts 247°
2026-05-05 04:35 58.47774 23.47780 37869 ft 440 kts 246°
2026-05-05 04:35 58.45257 23.37126 37875 ft 440 kts 246°
2026-05-05 04:36 58.42729 23.26478 37875 ft 440 kts 246°
2026-05-05 04:36 58.40209 23.15918 37882 ft 440 kts 246°
2026-05-05 04:37 58.37664 23.05301 37878 ft 440 kts 246°
2026-05-05 04:37 58.35107 22.94687 37893 ft 442 kts 246°
2026-05-05 04:38 58.32530 22.84045 37893 ft 442 kts 246°
2026-05-05 04:38 58.29953 22.73454 37896 ft 441 kts 246°
2026-05-05 04:39 58.27370 22.62888 37899 ft 441 kts 246°
2026-05-05 04:39 58.24788 22.52381 37900 ft 441 kts 246°
2026-05-05 04:40 58.22188 22.41846 37895 ft 441 kts 246°
2026-05-05 04:40 58.19581 22.31336 37896 ft 441 kts 246°
2026-05-05 04:41 58.16955 22.20797 37891 ft 443 kts 245°
2026-05-05 04:41 58.14315 22.10252 37890 ft 443 kts 245°
2026-05-05 04:42 58.11667 21.99729 37893 ft 443 kts 245°
2026-05-05 04:42 58.09011 21.89224 37894 ft 442 kts 245°
2026-05-05 04:43 58.06351 21.78753 37899 ft 442 kts 245°
2026-05-05 04:43 58.03684 21.68303 37899 ft 442 kts 245°
2026-05-05 04:44 58.01005 21.57853 37900 ft 443 kts 245°
2026-05-05 04:44 57.98364 21.47343 37902 ft 444 kts 246°
2026-05-05 04:45 57.95865 21.36820 37901 ft 444 kts 246°
2026-05-05 04:45 57.93344 21.26223 37900 ft 443 kts 246°
2026-05-05 04:46 57.90791 21.15650 37893 ft 443 kts 246°
2026-05-05 04:46 57.88224 21.05122 37913 ft 443 kts 246°
2026-05-05 04:47 57.85646 20.94608 37898 ft 443 kts 246°
2026-05-05 04:47 57.83059 20.84105 37910 ft 444 kts 246°
2026-05-05 04:48 57.80457 20.73588 37912 ft 444 kts 245°
2026-05-05 04:48 57.77850 20.63101 37918 ft 444 kts 245°
2026-05-05 04:49 57.75233 20.52624 37915 ft 444 kts 245°
2026-05-05 04:49 57.72607 20.42157 37915 ft 444 kts 245°
2026-05-05 04:50 57.69969 20.31698 37927 ft 444 kts 245°
2026-05-05 04:50 57.67125 20.21478 37921 ft 444 kts 238°
2026-05-05 04:51 57.63326 20.12333 37929 ft 446 kts 232°
2026-05-05 04:51 57.59319 20.03615 37929 ft 447 kts 231°
2026-05-05 04:52 57.55232 19.94871 37930 ft 447 kts 231°
2026-05-05 04:52 57.51159 19.86138 37932 ft 447 kts 231°
2026-05-05 04:53 57.47088 19.77402 37933 ft 447 kts 231°
2026-05-05 04:53 57.43025 19.68706 37940 ft 445 kts 231°
2026-05-05 04:54 57.38970 19.60056 37938 ft 444 kts 231°
2026-05-05 04:54 57.34911 19.51433 37940 ft 444 kts 231°
2026-05-05 04:55 57.30845 19.42826 37943 ft 444 kts 231°
2026-05-05 04:55 57.26776 19.34244 37945 ft 443 kts 231°
2026-05-05 04:56 57.22714 19.25711 37947 ft 442 kts 231°
2026-05-05 04:56 57.18650 19.17202 37951 ft 442 kts 231°
2026-05-05 04:57 57.14605 19.08765 37951 ft 442 kts 231°
2026-05-05 04:57 57.10531 19.00295 37954 ft 442 kts 231°
2026-05-05 04:58 57.06448 18.91839 37954 ft 442 kts 231°
2026-05-05 04:58 57.02361 18.83405 37963 ft 442 kts 231°
2026-05-05 04:59 56.98265 18.74982 37963 ft 443 kts 231°
2026-05-05 04:59 56.94157 18.66564 37967 ft 443 kts 231°
2026-05-05 05:00 56.90036 18.58151 37972 ft 443 kts 230°
2026-05-05 05:00 56.85921 18.49779 37977 ft 443 kts 230°
2026-05-05 05:01 56.81795 18.41416 37978 ft 443 kts 230°
2026-05-05 05:01 56.77657 18.33054 37978 ft 444 kts 230°
2026-05-05 05:02 56.73542 18.24770 37978 ft 444 kts 230°
2026-05-05 05:02 56.69388 18.16440 37983 ft 444 kts 230°
2026-05-05 05:03 56.65229 18.08128 37983 ft 444 kts 230°
2026-05-05 05:03 56.61063 17.99832 37964 ft 444 kts 230°
2026-05-05 05:04 56.56886 17.91541 37988 ft 446 kts 230°
2026-05-05 05:04 56.52690 17.83244 37995 ft 447 kts 230°
2026-05-05 05:05 56.48485 17.74959 37991 ft 447 kts 230°
2026-05-05 05:05 56.44272 17.66688 37995 ft 447 kts 230°
2026-05-05 05:06 56.40062 17.58449 37973 ft 447 kts 230°
2026-05-05 05:06 56.35836 17.50208 38000 ft 448 kts 230°
2026-05-05 05:07 56.31596 17.41971 38002 ft 448 kts 230°
2026-05-05 05:07 56.27356 17.33761 38000 ft 448 kts 229°
2026-05-05 05:08 56.23105 17.25561 38002 ft 448 kts 229°
2026-05-05 05:08 56.18850 17.17379 38003 ft 448 kts 229°
2026-05-05 05:09 56.14624 17.09282 38005 ft 448 kts 229°
2026-05-05 05:09 56.10356 17.01132 38004 ft 447 kts 229°
2026-05-05 05:10 56.06092 16.93019 38004 ft 448 kts 229°
2026-05-05 05:10 56.01807 16.84939 38002 ft 448 kts 227°
2026-05-05 05:11 55.96884 16.78037 38010 ft 452 kts 217°
2026-05-05 05:11 55.91566 16.72043 38014 ft 452 kts 215°
2026-05-05 05:12 55.86203 16.66222 38016 ft 451 kts 214°
2026-05-05 05:12 55.80845 16.60408 38023 ft 451 kts 215°
2026-05-05 05:13 55.75498 16.54585 38018 ft 451 kts 215°
2026-05-05 05:13 55.70153 16.48769 38016 ft 451 kts 215°
2026-05-05 05:14 55.65698 16.43935 38016 ft 451 kts 215°
2026-05-05 05:14 55.59478 16.37210 38031 ft 451 kts 215°
2026-05-05 05:15 55.54991 16.32375 38014 ft 451 kts 214°
2026-05-05 05:15 55.48755 16.25676 38019 ft 451 kts 214°
2026-05-05 05:16 55.44260 16.20863 38032 ft 452 kts 214°
2026-05-05 05:16 55.38909 16.15151 38032 ft 453 kts 214°
2026-05-05 05:17 55.33520 16.09418 38023 ft 453 kts 214°
2026-05-05 05:17 55.28130 16.03701 38028 ft 453 kts 214°
2026-05-05 05:18 55.22733 15.97996 38020 ft 453 kts 214°
2026-05-05 05:18 55.17319 15.92290 38030 ft 454 kts 214°
2026-05-05 05:19 55.11906 15.86604 38031 ft 454 kts 214°
2026-05-05 05:19 55.06491 15.80935 38034 ft 454 kts 214°
2026-05-05 05:20 55.01078 15.75285 38031 ft 454 kts 214°
2026-05-05 05:20 54.95657 15.69644 38036 ft 454 kts 214°
2026-05-05 05:21 54.90398 15.63747 38037 ft 451 kts 219°
2026-05-05 05:21 54.85372 15.57212 38036 ft 451 kts 220°
2026-05-05 05:22 54.80393 15.50602 38038 ft 451 kts 220°
2026-05-05 05:22 54.75415 15.44007 38036 ft 449 kts 220°
2026-05-05 05:23 54.70450 15.37472 38043 ft 448 kts 220°
2026-05-05 05:23 54.65488 15.30970 38037 ft 448 kts 220°
2026-05-05 05:24 54.60518 15.24478 38034 ft 448 kts 220°
2026-05-05 05:24 54.55545 15.18003 38023 ft 448 kts 219°
2026-05-05 05:25 54.50568 15.11545 38040 ft 447 kts 219°
2026-05-05 05:25 54.45607 15.05126 38044 ft 446 kts 219°
2026-05-05 05:26 54.40411 14.99241 38042 ft 450 kts 210°
2026-05-05 05:26 54.34737 14.94674 38039 ft 452 kts 207°
2026-05-05 05:27 54.28975 14.90355 38048 ft 452 kts 206°
2026-05-05 05:27 54.20331 14.83908 38035 ft 452 kts 207°
2026-05-05 05:28 54.14570 14.79596 38036 ft 452 kts 207°
2026-05-05 05:28 54.08810 14.75288 38035 ft 452 kts 207°
2026-05-05 05:29 54.03041 14.70983 38038 ft 453 kts 207°
2026-05-05 05:29 53.97255 14.66679 38038 ft 454 kts 207°
2026-05-05 05:30 53.91471 14.62391 38040 ft 454 kts 207°
2026-05-05 05:30 53.85688 14.58118 38023 ft 454 kts 206°
2026-05-05 05:31 53.79889 14.53844 38040 ft 455 kts 206°
2026-05-05 05:31 53.74121 14.49606 38040 ft 456 kts 206°
2026-05-05 05:32 53.68304 14.45346 38038 ft 456 kts 206°
2026-05-05 05:32 53.62482 14.41095 38020 ft 455 kts 206°
2026-05-05 05:33 53.56664 14.36859 38037 ft 456 kts 206°
2026-05-05 05:33 53.50924 14.32319 38038 ft 454 kts 213°
2026-05-05 05:34 53.45762 14.26309 38032 ft 452 kts 219°
2026-05-05 05:34 53.40736 14.19946 38032 ft 452 kts 219°
2026-05-05 05:35 53.35737 14.13565 38030 ft 452 kts 219°
2026-05-05 05:35 53.30719 14.07213 38030 ft 452 kts 219°
2026-05-05 05:36 53.25689 14.00894 38030 ft 452 kts 219°
2026-05-05 05:36 53.20688 13.94636 38025 ft 452 kts 219°
2026-05-05 05:37 53.15457 13.88648 38028 ft 454 kts 215°
2026-05-05 05:37 53.10125 13.83120 38024 ft 455 kts 214°
2026-05-05 05:38 53.04697 13.77594 38025 ft 455 kts 214°
2026-05-05 05:38 52.99337 13.72151 38021 ft 455 kts 214°
2026-05-05 05:39 52.94024 13.66478 38006 ft 453 kts 220°
2026-05-05 05:39 52.89526 13.59278 38017 ft 449 kts 229°
2026-05-05 05:40 52.85431 13.51494 38016 ft 449 kts 231°
2026-05-05 05:40 52.81384 13.43617 38017 ft 449 kts 231°
2026-05-05 05:41 52.77323 13.35778 38014 ft 449 kts 231°
2026-05-05 05:41 52.73244 13.27979 38014 ft 449 kts 230°
2026-05-05 05:42 52.69152 13.20199 38011 ft 449 kts 230°
2026-05-05 05:42 52.65061 13.12445 38030 ft 449 kts 230°
2026-05-05 05:43 52.60957 13.04688 38000 ft 449 kts 230°
2026-05-05 05:43 52.56848 12.96944 38000 ft 449 kts 230°
2026-05-05 05:44 52.52739 12.89224 37992 ft 449 kts 230°
2026-05-05 05:44 52.48631 12.81531 37995 ft 447 kts 230°
2026-05-05 05:45 52.44529 12.73872 37994 ft 447 kts 230°
2026-05-05 05:45 52.40774 12.65774 37994 ft 446 kts 240°
2026-05-05 05:46 52.38440 12.56423 38002 ft 446 kts 254°
2026-05-05 05:46 52.36966 12.46545 38008 ft 447 kts 256°
2026-05-05 05:47 52.35630 12.36683 37990 ft 447 kts 256°
2026-05-05 05:47 52.34265 12.26770 38004 ft 447 kts 256°
2026-05-05 05:48 52.32864 12.16866 38002 ft 446 kts 256°
2026-05-05 05:48 52.31446 12.06994 38003 ft 446 kts 255°
2026-05-05 05:49 52.30019 11.97117 38000 ft 446 kts 255°
2026-05-05 05:49 52.28587 11.87265 38001 ft 447 kts 255°
2026-05-05 05:50 52.27141 11.77380 38003 ft 447 kts 255°
2026-05-05 05:50 52.25690 11.67520 38003 ft 447 kts 255°
2026-05-05 05:51 52.24239 11.57719 38003 ft 447 kts 255°
2026-05-05 05:51 52.22771 11.47868 38000 ft 447 kts 255°
2026-05-05 05:52 52.21295 11.38019 37990 ft 447 kts 255°
2026-05-05 05:52 52.19810 11.28181 38002 ft 447 kts 255°
2026-05-05 05:53 52.18314 11.18322 37999 ft 447 kts 255°
2026-05-05 05:53 52.16812 11.08492 38001 ft 447 kts 254°
2026-05-05 05:54 52.15296 10.98660 38001 ft 447 kts 254°
2026-05-05 05:54 52.12995 10.89374 38005 ft 445 kts 240°
2026-05-05 05:55 52.09146 10.81448 38007 ft 446 kts 224°
2026-05-05 05:55 52.04029 10.75801 38005 ft 451 kts 210°
2026-05-05 05:56 51.98380 10.71346 38001 ft 452 kts 207°
2026-05-05 05:56 51.92680 10.67051 38002 ft 451 kts 207°
2026-05-05 05:57 51.87001 10.62732 38001 ft 451 kts 207°
2026-05-05 05:57 51.81326 10.58377 38002 ft 451 kts 208°
2026-05-05 05:58 51.75656 10.54020 38003 ft 451 kts 207°
2026-05-05 05:58 51.69980 10.49672 38003 ft 452 kts 207°
2026-05-05 05:59 51.64303 10.45337 38006 ft 452 kts 207°
2026-05-05 05:59 51.58621 10.41012 38005 ft 452 kts 207°
2026-05-05 06:00 51.52944 10.36703 38007 ft 451 kts 207°
2026-05-05 06:00 51.47261 10.32401 38009 ft 451 kts 207°
2026-05-05 06:01 51.41582 10.28113 38006 ft 451 kts 207°
2026-05-05 06:01 51.35845 10.24002 37990 ft 453 kts 202°
2026-05-05 06:02 51.30730 10.22073 38008 ft 458 kts 189°
2026-05-05 06:02 51.23258 10.21582 38008 ft 461 kts 184°
2026-05-05 06:03 51.17922 10.21534 38005 ft 461 kts 184°
2026-05-05 06:03 51.11502 10.21478 38002 ft 461 kts 184°
2026-05-05 06:04 51.05081 10.21388 38003 ft 461 kts 185°
2026-05-05 06:04 50.98682 10.21277 38004 ft 460 kts 185°
2026-05-05 06:05 50.92274 10.21161 38006 ft 460 kts 185°
2026-05-05 06:05 50.85881 10.20953 37993 ft 456 kts 190°
2026-05-05 06:06 50.82817 10.19910 38004 ft 447 kts 203°
2026-05-05 06:06 50.80084 10.17692 38002 ft 440 kts 218°
2026-05-05 06:06 50.77886 10.14390 38005 ft 437 kts 233°
2026-05-05 06:06 50.76217 10.10378 38000 ft 437 kts 239°
2026-05-05 06:07 50.73417 10.01845 38000 ft 439 kts 243°
2026-05-05 06:07 50.70769 9.93121 37999 ft 440 kts 243°
2026-05-05 06:08 50.68067 9.84465 38001 ft 440 kts 242°
2026-05-05 06:08 50.65317 9.75890 37999 ft 442 kts 242°
2026-05-05 06:09 50.61837 9.67980 37998 ft 443 kts 221°
2026-05-05 06:09 50.59278 9.65280 37995 ft 444 kts 210°
2026-05-05 06:09 50.56483 9.63180 37994 ft 447 kts 205°
2026-05-05 06:10 50.50644 9.59736 37993 ft 449 kts 202°
2026-05-05 06:10 50.44772 9.56453 37988 ft 446 kts 202°
2026-05-05 06:11 50.38959 9.53187 37989 ft 442 kts 202°
2026-05-05 06:11 50.33180 9.49948 37989 ft 441 kts 202°
2026-05-05 06:12 50.27392 9.46707 37983 ft 441 kts 202°
2026-05-05 06:12 50.21619 9.43451 37983 ft 440 kts 202°
2026-05-05 06:13 50.15870 9.40182 37983 ft 440 kts 202°
2026-05-05 06:13 50.10112 9.36912 37981 ft 440 kts 202°
2026-05-05 06:14 50.04363 9.33650 37969 ft 440 kts 202°
2026-05-05 06:14 49.98637 9.30354 37982 ft 439 kts 202°
2026-05-05 06:15 49.92918 9.27043 37977 ft 439 kts 202°
2026-05-05 06:15 49.87226 9.23754 37977 ft 439 kts 202°
2026-05-05 06:16 49.81461 9.20424 37970 ft 439 kts 202°
2026-05-05 06:16 49.75750 9.17061 37972 ft 440 kts 202°
2026-05-05 06:17 49.70073 9.13709 37974 ft 440 kts 202°
2026-05-05 06:17 49.64355 9.10336 37974 ft 440 kts 202°
2026-05-05 06:18 49.58642 9.06964 37966 ft 440 kts 202°
2026-05-05 06:18 49.52926 9.03549 37967 ft 441 kts 202°
2026-05-05 06:19 49.47201 9.00130 37967 ft 441 kts 202°
2026-05-05 06:19 49.41482 8.96719 37971 ft 441 kts 202°
2026-05-05 06:20 49.35755 8.93300 37987 ft 443 kts 202°
2026-05-05 06:20 49.30007 8.89829 37983 ft 444 kts 202°
2026-05-05 06:21 49.24277 8.86318 37972 ft 444 kts 202°
2026-05-05 06:21 49.18544 8.82807 37953 ft 444 kts 202°
2026-05-05 06:22 49.12796 8.79278 37973 ft 446 kts 202°
2026-05-05 06:22 49.07024 8.75731 37976 ft 447 kts 202°
2026-05-05 06:23 49.01248 8.72189 37964 ft 447 kts 202°
2026-05-05 06:23 48.95475 8.68654 37967 ft 448 kts 202°
2026-05-05 06:24 48.89687 8.65110 37965 ft 449 kts 202°
2026-05-05 06:24 48.83891 8.61569 37981 ft 449 kts 202°
2026-05-05 06:25 48.78130 8.58053 37981 ft 449 kts 202°
2026-05-05 06:25 48.72325 8.54523 37983 ft 451 kts 202°
2026-05-05 06:26 48.66491 8.50989 37980 ft 452 kts 202°
2026-05-05 06:26 48.60644 8.47457 37985 ft 453 kts 202°
2026-05-05 06:27 48.51866 8.42168 37981 ft 453 kts 202°
2026-05-05 06:28 48.46022 8.38657 37984 ft 452 kts 202°
2026-05-05 06:28 48.40172 8.35148 37988 ft 453 kts 202°
2026-05-05 06:29 48.34319 8.31644 37977 ft 453 kts 202°
2026-05-05 06:29 48.28450 8.28151 37990 ft 455 kts 202°
2026-05-05 06:30 48.22562 8.24658 37989 ft 455 kts 202°
2026-05-05 06:30 48.16667 8.21173 37990 ft 455 kts 202°
2026-05-05 06:31 48.10772 8.17702 37989 ft 456 kts 201°
2026-05-05 06:31 48.04857 8.14231 37988 ft 457 kts 201°
2026-05-05 06:32 47.98937 8.10764 37982 ft 457 kts 201°
2026-05-05 06:32 47.93058 8.07326 37982 ft 457 kts 202°
2026-05-05 06:33 47.87116 8.03881 37982 ft 459 kts 201°
2026-05-05 06:33 47.81160 8.00437 37977 ft 459 kts 201°
2026-05-05 06:34 47.75209 7.97005 37989 ft 459 kts 201°
2026-05-05 06:34 47.69249 7.93585 37992 ft 459 kts 201°
2026-05-05 06:35 47.63274 7.90183 37998 ft 459 kts 201°
2026-05-05 06:35 47.57306 7.86793 37999 ft 459 kts 201°
2026-05-05 06:36 47.51335 7.83411 38001 ft 459 kts 201°
2026-05-05 06:36 47.45361 7.80067 38003 ft 458 kts 201°
2026-05-05 06:37 47.39399 7.76740 38004 ft 458 kts 201°
2026-05-05 06:37 47.33438 7.73416 38007 ft 458 kts 201°
2026-05-05 06:38 47.27474 7.70107 38009 ft 457 kts 201°
2026-05-05 06:38 47.21519 7.66812 38011 ft 457 kts 201°
2026-05-05 06:39 47.15603 7.63544 38012 ft 457 kts 201°
2026-05-05 06:39 47.09648 7.60256 38015 ft 457 kts 201°
2026-05-05 06:40 47.03684 7.56970 38011 ft 457 kts 201°
2026-05-05 06:40 46.97724 7.53690 38012 ft 457 kts 201°
2026-05-05 06:41 46.91764 7.50415 38012 ft 457 kts 201°
2026-05-05 06:41 46.85805 7.47161 38037 ft 457 kts 201°
2026-05-05 06:42 46.79849 7.43917 38038 ft 457 kts 201°
2026-05-05 06:42 46.73891 7.40680 38030 ft 457 kts 201°
2026-05-05 06:43 46.67924 7.37462 38027 ft 457 kts 201°
2026-05-05 06:43 46.61969 7.34272 38024 ft 456 kts 201°
2026-05-05 06:44 46.56005 7.31082 38027 ft 456 kts 201°
2026-05-05 06:44 46.50045 7.27890 38030 ft 456 kts 201°
2026-05-05 06:45 46.44080 7.24701 38044 ft 457 kts 201°
2026-05-05 06:45 46.38128 7.21528 38056 ft 455 kts 201°
2026-05-05 06:46 46.32218 7.18389 38059 ft 455 kts 201°
2026-05-05 06:46 46.26265 7.15256 38062 ft 455 kts 201°
2026-05-05 06:47 46.20322 7.12139 38061 ft 454 kts 201°
2026-05-05 06:47 46.14368 7.09029 38059 ft 455 kts 201°
2026-05-05 06:48 46.08416 7.05953 38068 ft 455 kts 201°
2026-05-05 06:48 46.02456 7.02883 38076 ft 455 kts 201°
2026-05-05 06:49 45.97506 7.00333 38084 ft 455 kts 201°
2026-05-05 06:49 45.91544 6.97301 38104 ft 454 kts 201°
2026-05-05 06:50 45.85600 6.94293 38091 ft 452 kts 201°
2026-05-05 06:50 45.79678 6.91299 38080 ft 451 kts 201°
2026-05-05 06:51 45.73769 6.88317 38077 ft 450 kts 201°
2026-05-05 06:51 45.67880 6.85352 38064 ft 448 kts 201°
2026-05-05 06:52 45.61994 6.82394 38065 ft 447 kts 201°
2026-05-05 06:52 45.56138 6.79441 38044 ft 448 kts 201°
2026-05-05 06:53 45.50269 6.76479 38037 ft 446 kts 201°
2026-05-05 06:53 45.44408 6.73525 38038 ft 447 kts 201°
2026-05-05 06:54 45.38546 6.70571 38029 ft 446 kts 201°
2026-05-05 06:54 45.32735 6.67622 38038 ft 446 kts 201°
2026-05-05 06:55 45.26885 6.64660 38019 ft 447 kts 201°
2026-05-05 06:55 45.21017 6.61710 38024 ft 447 kts 201°
2026-05-05 06:56 45.15152 6.58774 38045 ft 448 kts 201°
2026-05-05 06:56 45.09278 6.55837 38041 ft 448 kts 201°
2026-05-05 06:57 45.03399 6.52904 38031 ft 447 kts 201°
2026-05-05 06:57 44.97527 6.49977 38060 ft 448 kts 201°
2026-05-05 06:58 44.91638 6.47055 38037 ft 451 kts 201°
2026-05-05 06:58 44.85714 6.44113 38061 ft 451 kts 201°
2026-05-05 06:59 44.79791 6.41166 38056 ft 451 kts 201°
2026-05-05 06:59 44.73886 6.38263 38048 ft 453 kts 201°
2026-05-05 07:00 44.67902 6.35331 38048 ft 452 kts 201°
2026-05-05 07:00 44.62002 6.32444 38045 ft 452 kts 201°
2026-05-05 07:01 44.56061 6.29551 38047 ft 452 kts 201°
2026-05-05 07:01 44.50126 6.26651 38035 ft 452 kts 201°
2026-05-05 07:02 44.44189 6.23747 38024 ft 452 kts 201°
2026-05-05 07:02 44.38236 6.20898 38036 ft 452 kts 201°
2026-05-05 07:03 44.32275 6.18076 38031 ft 452 kts 201°
2026-05-05 07:03 44.26314 6.15259 38031 ft 452 kts 201°
2026-05-05 07:04 44.20354 6.12481 38033 ft 452 kts 201°
2026-05-05 07:04 44.14370 6.09732 38031 ft 452 kts 201°
2026-05-05 07:05 44.08409 6.07007 38032 ft 451 kts 201°
2026-05-05 07:05 44.02445 6.04323 38030 ft 450 kts 201°
2026-05-05 07:06 43.96497 6.01679 38034 ft 449 kts 201°
2026-05-05 07:06 43.90543 5.99037 38033 ft 449 kts 201°
2026-05-05 07:07 43.84586 5.96408 38027 ft 448 kts 201°
2026-05-05 07:07 43.78645 5.93848 38031 ft 446 kts 201°
2026-05-05 07:08 43.72729 5.91309 38030 ft 445 kts 201°
2026-05-05 07:08 43.66841 5.88786 38012 ft 445 kts 201°
2026-05-05 07:09 43.60964 5.86295 38006 ft 444 kts 200°
2026-05-05 07:09 43.57984 5.85005 34788 ft 472 kts 202°
2026-05-05 07:09 43.54748 5.83503 31996 ft 497 kts 203°
2026-05-05 07:09 43.53648 5.82999 31433 ft 492 kts 201°